GFSNGP_925_spd_024.txt.gz
Wind_Speed
13 15 3 10 11 8 12 10 10 10 14 12 9 8 4 3 6 5 8 11 11 11 12 20 20 22 23 22 18 14 14 19 18 12 6 8 8 9 10 11 13 14 13 14
3 11 14 12 14 13 15 13 14 14 13 10 6 7 8 8 6 2 6 7 5 5 10 16 19 20 21 20 19 14 19 19 8 6 7 5 9 10 13 15 14 13 13 14
2 5 6 5 9 16 15 14 12 10 10 7 11 5 5 4 6 3 5 6 6 3 6 11 16 20 20 18 15 15 16 10 9 5 6 9 11 11 13 15 14 14 14 12
1 1 1 7 3 5 5 8 10 11 9 10 13 11 6 6 5 6 1 4 5 4 8 12 12 15 18 17 15 14 8 2 6 9 7 9 11 14 15 13 13 15 14 12
2 4 7 11 2 2 1 3 11 10 11 11 10 8 9 9 8 7 8 5 5 7 5 7 9 11 16 11 7 11 8 10 7 6 10 12 12 13 13 15 16 14 15 12
3 2 4 0 4 2 2 2 9 9 8 8 9 3 4 11 9 3 7 8 8 5 4 3 10 11 12 17 14 13 9 8 16 11 11 13 14 14 16 15 15 13 8 8
3 2 5 3 5 1 2 3 4 6 7 7 6 4 3 4 6 14 12 10 8 19 24 25 22 21 23 20 18 13 13 6 8 9 10 12 15 15 15 16 17 16 13 11
2 2 5 5 5 3 4 4 7 7 7 5 6 6 7 9 6 7 12 16 25 27 27 27 24 25 22 18 9 3 4 7 9 11 11 12 11 14 16 18 20 16 11 11
7 4 5 3 3 3 5 4 4 5 6 7 7 8 9 8 6 8 19 26 26 24 22 19 19 18 14 7 3 2 10 9 10 11 11 11 12 14 16 15 18 16 13 10
2 4 5 3 1 0 5 7 9 9 8 9 8 10 9 6 9 12 21 21 20 19 18 16 14 11 5 3 7 6 8 10 11 10 11 13 14 15 15 9 15 17 15 13
6 8 5 7 12 10 8 9 10 10 13 13 9 9 12 15 15 19 20 18 17 17 15 9 5 4 6 7 5 8 10 10 10 11 13 15 15 16 11 14 15 20 19 16
3 8 3 9 11 9 11 10 11 11 13 15 16 15 17 14 17 16 16 14 12 10 8 7 8 6 6 7 9 9 9 10 10 12 13 14 16 16 15 18 19 20 21 22
3 6 5 12 12 13 12 12 13 13 16 12 16 16 16 14 12 14 10 7 5 3 2 5 6 9 10 10 10 12 13 12 12 12 13 14 14 17 17 20 20 21 20 21
5 4 10 6 8 12 15 15 17 16 15 14 13 13 11 11 8 7 5 4 3 5 6 8 10 12 12 12 12 13 14 14 16 18 11 12 13 17 19 21 21 21 20 19
6 9 12 13 15 12 14 13 12 11 12 13 11 10 9 8 7 5 3 5 6 8 10 11 12 14 15 16 14 16 18 20 20 18 17 18 21 22 21 20 21 22 22 20
8 13 13 12 11 11 11 11 11 8 8 13 14 15 12 9 9 9 9 11 8 10 14 19 22 23 18 19 20 21 21 20 22 24 21 18 18 19 20 20 19 19 18 20
13 11 10 10 10 10 11 12 12 11 12 12 10 9 9 10 9 12 12 13 14 16 18 19 20 18 19 19 20 22 23 23 20 15 17 19 20 20 20 20 20 17 20 21
13 12 10 10 9 10 10 13 13 13 10 9 8 9 10 11 9 11 15 17 17 18 18 16 19 21 23 21 22 24 24 25 23 20 21 20 20 18 20 21 21 21 21 22
17 14 16 15 14 14 13 11 10 12 11 10 10 11 10 11 12 13 15 16 15 16 17 25 27 28 25 25 25 26 27 28 28 26 24 21 18 19 20 20 21 21 20 20
16 17 17 16 16 15 12 10 10 13 11 11 10 11 10 10 10 13 14 14 15 15 24 27 29 27 28 26 26 28 29 26 28 30 24 17 17 17 15 18 22 20 18 16
14 15 14 14 14 14 12 10 11 12 10 13 12 10 12 13 13 16 14 14 17 25 25 29 26 24 30 34 35 28 28 25 24 24 26 22 15 11 10 12 14 14 14 12
13 12 13 12 12 11 11 10 11 11 11 11 11 13 15 14 16 15 15 17 22 24 28 21 26 31 35 28 26 27 27 25 20 20 21 17 3 7 10 12 13 14 14 14
14 13 12 10 10 11 10 10 9 11 11 10 11 13 13 13 14 15 13 19 20 25 22 20 27 30 28 25 26 25 26 23 24 24 22 20 17 15 14 14 15 15 16 16
14 11 10 9 10 7 6 8 6 7 10 9 10 12 13 13 12 13 17 19 19 22 21 21 25 27 25 24 24 24 24 22 23 23 22 21 21 19 18 18 18 18 19 21
11 10 8 7 5 7 6 7 5 8 9 9 9 10 10 11 11 15 16 16 18 19 20 21 22 23 22 23 23 22 22 22 23 22 22 22 21 21 20 20 21 21 21 22
9 10 10 10 8 7 7 7 7 8 9 9 10 11 10 11 11 13 15 17 17 19 19 20 21 21 20 21 21 21 21 21 23 22 22 21 21 21 21 22 22 23 24 25
10 7 8 9 9 8 7 7 7 8 8 6 9 13 11 10 12 13 15 17 18 18 18 18 19 20 20 20 20 19 20 20 21 21 21 22 22 22 23 23 24 24 24 26

GFSNGP_925_spd_027.txt.gz
Wind_Speed
3 5 5 4 3 6 5 6 6 8 7 10 0 6 5 6 4 4 7 4 7 12 12 21 23 26 31 31 30 27 21 19 16 14 18 15 5 3 2 7 11 15 17 13
2 6 7 4 6 7 7 6 2 3 6 6 7 7 8 7 7 7 6 7 8 9 11 18 22 26 31 33 31 28 25 18 13 9 11 9 4 6 7 8 11 15 13 12
3 4 5 6 7 7 5 4 4 4 5 10 11 9 7 6 8 7 5 7 8 7 10 17 25 32 31 33 32 25 17 13 15 11 5 6 7 12 14 17 16 11 11 12
3 3 1 8 1 5 5 5 8 8 8 8 6 8 13 9 9 9 8 7 6 5 6 20 25 28 29 31 27 16 19 20 13 9 6 9 9 11 15 14 14 14 15 13
4 4 5 7 3 2 3 4 5 7 8 7 7 6 7 8 8 6 5 4 6 9 9 11 15 24 25 25 26 25 21 21 17 14 10 6 9 16 15 14 18 19 18 15
2 4 6 6 3 5 4 2 4 8 8 7 7 5 3 5 6 8 21 21 26 26 29 31 26 32 35 28 29 25 22 18 15 8 4 10 13 11 15 18 17 16 14 10
2 2 7 6 5 2 6 6 4 5 5 6 3 4 3 3 6 24 23 24 27 32 30 27 28 34 31 28 25 21 16 10 4 3 9 9 10 16 10 13 18 19 21 18
3 3 6 6 3 6 6 3 6 4 3 4 3 6 6 9 14 18 21 23 25 28 26 26 26 29 24 22 13 9 5 3 4 7 9 10 10 10 15 18 17 17 18 16
6 6 7 3 7 6 7 6 5 6 6 6 8 6 7 13 14 18 21 21 22 24 22 21 21 20 18 11 7 6 2 5 10 8 11 8 12 14 16 17 15 13 17 18
5 2 2 3 10 9 9 10 12 12 10 8 7 12 14 13 12 16 18 19 19 20 17 15 12 11 11 7 4 4 7 9 10 9 10 12 14 14 16 19 11 15 18 19
2 2 11 10 7 11 13 13 15 16 15 12 14 13 13 12 12 15 15 14 15 14 13 11 9 8 7 6 9 8 10 12 13 12 12 13 14 14 15 11 15 20 22 23
4 2 9 5 7 12 15 13 12 13 14 15 15 11 13 9 12 12 13 15 16 13 10 7 5 3 7 7 10 13 14 14 14 14 15 14 16 16 13 18 16 18 22 23
5 9 15 13 14 14 15 13 13 13 14 12 15 16 15 12 14 15 14 11 9 5 3 4 6 8 11 12 13 15 17 19 18 17 18 18 19 16 20 22 23 25 23 21
7 13 9 6 9 13 15 17 19 19 19 17 16 18 17 12 11 10 8 7 6 7 7 8 10 12 13 16 18 20 21 21 22 22 22 23 20 19 23 23 24 27 25 22
12 13 15 15 15 12 17 15 12 10 9 11 13 11 11 11 11 14 17 13 10 10 12 16 18 19 18 18 19 22 23 25 26 29 30 28 27 27 30 26 28 28 29 28
15 15 14 14 13 12 11 9 9 8 9 12 14 16 15 16 17 17 17 17 16 13 14 15 19 22 22 23 24 24 25 27 28 31 30 26 27 24 24 24 25 24 23 27
16 10 11 12 11 11 12 10 11 11 13 13 12 12 15 15 16 15 15 14 12 11 14 15 22 25 25 23 24 23 26 27 26 26 23 24 26 23 23 25 26 23 24 27
13 11 11 14 13 12 10 13 15 15 12 12 12 12 13 13 10 8 11 11 13 11 18 20 23 26 23 23 25 25 23 24 25 27 27 23 26 30 29 28 21 23 25 28
19 17 20 18 18 17 14 14 14 14 13 12 12 12 10 9 9 11 13 17 17 16 18 25 23 18 23 28 31 29 28 27 27 26 27 27 27 30 33 21 16 18 19 22
20 22 21 19 19 19 15 15 18 17 14 15 14 13 10 9 11 13 12 15 16 16 23 17 20 27 32 29 25 25 26 26 27 27 27 25 25 27 22 20 8 6 9 12
15 18 18 18 17 17 18 18 18 17 15 14 14 13 13 12 13 14 13 10 12 22 19 16 24 30 28 26 24 24 25 26 23 26 25 26 26 28 25 22 16 14 12 13
15 15 16 16 16 17 16 17 16 15 14 12 13 12 11 11 12 10 15 13 15 20 19 19 24 26 27 24 24 25 26 23 26 24 24 25 24 24 23 22 21 20 19 18
15 15 16 16 16 17 16 15 14 12 11 11 12 11 10 11 13 12 8 13 17 19 18 18 22 24 25 24 23 24 24 23 25 24 25 23 22 23 22 21 21 22 23 22
16 14 14 17 20 17 12 11 11 12 12 10 12 10 8 8 8 11 11 13 16 17 17 18 20 21 21 23 22 22 22 21 25 23 24 21 22 22 20 21 22 22 22 23
16 16 17 16 13 13 12 11 12 11 10 10 10 10 7 7 8 9 12 14 15 16 16 17 18 19 19 21 20 20 20 19 23 21 22 22 24 21 22 23 22 23 23 24
15 14 17 18 16 14 12 9 12 10 6 5 7 7 9 7 9 9 11 13 15 15 16 17 17 17 18 18 18 18 19 19 23 21 20 24 24 22 24 23 23 24 24 24
16 16 17 16 15 11 9 8 7 7 4 5 9 10 7 8 9 9 12 14 14 14 15 14 16 16 19 16 18 17 18 20 21 18 21 25 24 23 22 24 24 24 25 25

GFSNGP_925_spd_030.txt.gz
Wind_Speed
4 4 1 1 5 4 5 5 5 8 8 10 3 2 7 7 3 3 6 5 6 7 7 15 18 19 23 32 35 38 36 31 27 24 22 22 19 16 13 6 3 8 12 15
2 3 3 3 6 5 5 3 5 5 4 6 5 5 8 7 8 7 6 5 3 10 12 17 22 25 27 33 35 37 35 30 23 21 18 16 17 13 7 5 4 9 16 17
4 4 4 5 7 7 6 3 4 4 4 4 7 7 5 5 8 8 7 6 5 6 10 16 23 30 32 32 33 31 22 20 17 20 22 17 13 10 10 6 12 14 12 13
3 3 2 7 5 3 9 5 6 9 5 5 9 5 7 5 6 7 6 7 7 6 6 13 18 20 17 18 21 20 20 21 24 22 21 18 14 9 4 11 13 11 15 16
4 3 5 6 4 5 5 1 1 6 5 4 6 5 6 5 7 7 7 9 13 17 19 20 19 21 27 27 27 27 23 24 23 20 15 10 6 3 11 7 10 15 13 15
3 4 7 7 4 3 5 1 5 7 4 4 4 3 3 6 7 11 15 14 16 21 26 29 25 28 34 28 30 29 26 21 11 7 4 1 5 9 8 13 9 10 16 16
2 3 7 8 6 2 5 6 6 6 6 5 3 4 4 9 12 15 16 17 20 24 26 25 25 31 29 26 23 16 11 7 0 3 1 7 8 10 11 7 12 14 13 14
3 2 7 6 4 7 6 4 7 5 4 7 7 9 10 10 11 12 15 17 20 23 22 22 21 22 21 17 9 4 3 4 1 3 9 8 9 8 10 13 14 15 15 15
8 6 5 2 3 4 6 7 4 7 4 8 8 8 10 10 10 12 14 16 17 19 19 17 15 14 15 9 9 8 4 1 7 7 8 9 8 12 13 13 15 19 16 17
4 4 3 6 7 6 5 10 7 6 7 10 13 11 12 10 9 11 13 13 13 17 17 17 16 15 12 8 4 2 4 6 8 10 10 12 14 14 14 15 18 18 18 21
4 1 9 8 6 10 13 12 14 13 12 12 14 12 11 9 9 13 13 14 16 16 15 13 10 8 7 7 7 8 11 13 14 14 14 16 16 16 16 17 15 15 19 21
5 11 5 4 5 7 12 10 10 15 13 12 14 12 14 10 13 13 14 15 14 13 11 9 8 8 10 11 12 12 15 17 18 18 19 19 20 23 20 20 19 20 22 23
6 6 13 13 10 9 13 12 12 13 14 14 15 18 17 14 15 16 14 12 10 10 10 10 11 13 14 15 15 15 20 24 26 26 25 26 26 26 26 30 26 27 27 25
18 18 9 4 8 12 16 18 22 21 19 19 18 20 19 15 14 14 13 12 12 13 14 14 17 19 19 20 20 20 20 20 22 25 27 29 31 32 32 27 25 25 27 26
6 9 13 16 15 14 19 19 14 11 11 13 17 16 18 17 15 14 13 12 13 16 16 16 17 22 23 22 21 21 22 24 24 25 24 24 25 27 28 28 27 24 28 27
15 17 16 16 14 13 13 10 13 9 10 13 15 16 17 18 14 12 13 13 14 13 13 15 19 21 21 20 21 21 21 21 23 24 24 25 25 25 24 25 25 26 22 23
18 10 14 14 13 11 10 7 9 11 14 14 13 12 15 16 16 15 13 11 12 14 15 18 18 18 19 22 24 25 25 25 24 23 24 25 26 24 24 26 25 23 28 28
12 11 12 16 15 13 11 14 15 15 14 15 15 16 17 17 12 12 12 16 12 13 19 15 16 20 22 22 22 21 21 22 22 21 23 25 25 26 27 27 28 30 29 25
20 16 18 18 19 18 16 15 15 17 16 15 17 16 14 12 10 11 13 14 15 13 14 12 19 21 21 20 20 19 21 21 21 21 22 24 25 24 25 28 28 24 15 4
17 22 23 20 18 22 18 16 18 17 17 16 16 15 15 15 11 12 11 15 13 12 8 13 17 21 20 19 17 19 20 18 24 21 21 23 22 22 23 26 26 27 26 25
14 18 19 20 17 19 20 22 22 18 16 15 17 15 15 12 11 9 11 9 9 11 9 11 15 18 19 19 16 19 19 18 24 21 23 22 21 23 22 22 22 22 23 24
16 17 17 19 18 17 19 20 21 21 18 16 14 13 13 13 12 12 10 7 6 9 9 11 13 15 16 18 17 18 18 18 22 21 23 21 20 22 21 21 22 22 21 20
15 17 17 17 17 17 19 17 17 17 16 14 13 11 11 11 7 7 5 4 6 9 8 10 11 13 14 17 16 16 16 17 21 19 20 20 23 22 20 23 23 22 22 23
15 15 15 18 22 18 14 13 13 14 15 12 10 8 7 8 7 5 4 4 7 8 8 10 12 13 15 16 15 16 15 17 20 17 17 21 23 20 23 22 21 22 23 23
15 15 18 16 12 9 13 15 16 16 13 11 9 6 4 4 3 4 4 7 8 8 9 10 11 13 15 14 15 15 15 17 20 15 17 22 25 23 22 21 22 22 23 23
15 14 16 16 14 15 14 13 12 9 8 7 7 6 8 6 3 3 5 8 8 8 10 10 11 12 15 12 13 13 15 17 20 15 18 22 25 23 22 22 22 23 24 24
19 19 18 17 16 14 12 11 9 5 4 4 5 6 3 2 2 5 8 11 9 8 8 9 11 13 14 12 12 11 14 17 19 18 20 23 25 23 21 21 22 23 23 24

GFSNGP_925_spd_033.txt.gz
Wind_Speed
3 3 4 5 5 6 7 5 6 8 7 8 4 7 7 6 2 1 6 7 7 6 6 13 14 19 23 26 28 29 34 35 36 34 30 27 25 20 19 14 10 6 5 11
3 3 3 4 7 6 5 4 7 5 6 3 3 2 6 7 7 7 6 5 8 9 11 15 20 21 23 27 32 33 33 28 21 19 15 11 10 15 15 11 7 2 10 14
4 2 2 6 8 7 7 6 6 6 8 2 2 4 5 6 7 7 7 7 8 6 4 10 17 25 27 25 25 23 16 14 14 14 18 23 20 15 10 5 3 6 11 15
3 3 1 7 2 7 5 2 4 5 5 4 5 4 5 4 6 7 6 7 7 9 9 7 5 9 11 13 16 17 18 21 24 27 25 17 13 8 2 3 7 8 13 15
4 4 4 4 4 6 5 3 3 6 7 6 5 4 7 7 8 6 6 7 10 14 15 18 18 18 23 25 26 28 26 29 24 18 13 7 3 6 8 5 7 12 13 12
3 5 8 8 4 4 6 2 5 5 6 7 3 3 3 4 5 8 12 13 13 17 20 22 21 23 30 26 29 28 25 18 13 9 8 5 1 3 6 10 14 12 13 17
2 3 7 8 5 5 6 7 8 8 7 6 5 3 5 7 9 12 13 15 18 21 22 21 22 27 29 26 22 15 10 6 2 0 2 2 6 10 11 14 12 15 17 16
3 3 7 6 5 8 6 2 7 5 6 6 8 8 9 9 8 10 12 15 17 20 20 19 19 22 18 17 11 7 5 3 2 1 4 8 9 10 12 12 16 18 19 20
8 6 4 3 4 3 5 8 6 7 6 10 11 6 9 8 7 9 13 16 19 21 22 19 16 14 16 11 9 9 6 3 4 6 7 9 11 11 14 17 18 20 20 24
4 2 4 2 3 4 3 5 5 4 7 8 12 11 11 10 8 10 14 16 17 18 17 17 17 16 13 8 6 6 6 7 9 10 12 13 14 16 17 19 21 22 23 22
1 1 3 4 3 6 10 10 12 10 7 13 15 11 12 10 8 12 14 15 16 16 15 14 12 12 10 9 8 9 10 12 14 16 17 19 19 20 21 23 22 24 25 24
6 11 5 5 7 8 10 9 9 14 11 10 13 13 15 9 13 14 14 16 16 15 14 13 14 15 15 14 13 12 14 16 18 20 21 22 25 28 27 29 30 30 30 31
5 9 5 12 8 5 11 9 10 12 13 14 14 19 18 15 14 17 16 16 17 17 16 16 17 18 17 16 16 16 17 18 20 21 23 24 25 22 24 30 27 29 30 35
16 16 8 3 6 10 13 15 18 18 17 17 18 19 20 17 20 19 17 16 15 16 14 14 16 19 18 18 18 18 19 18 20 22 22 23 23 21 22 22 26 28 26 29
5 6 12 16 14 13 18 18 15 12 11 13 18 18 19 16 14 12 14 14 15 16 15 15 16 18 18 19 20 20 20 18 21 21 21 22 22 23 23 24 25 28 27 26
13 16 17 17 15 14 14 12 15 10 9 13 16 16 16 17 17 16 14 12 13 13 14 15 15 16 17 19 19 18 18 17 19 20 20 20 21 22 24 25 25 25 25 27
18 10 14 14 13 12 12 10 10 10 13 15 15 19 20 19 17 15 17 16 16 14 13 13 13 15 15 16 16 17 17 18 19 17 19 19 20 21 21 21 23 25 27 30
10 11 9 16 15 14 12 14 16 16 14 16 21 21 20 17 14 17 17 14 12 13 11 12 14 14 13 15 15 16 17 16 18 18 17 20 20 19 20 21 22 22 26 33
17 17 16 17 18 17 16 16 16 17 21 23 22 19 18 17 20 18 13 13 12 9 7 10 12 14 15 14 14 15 15 16 19 18 20 20 19 20 21 21 21 22 24 25
15 20 23 21 20 22 18 18 19 18 20 22 21 19 17 15 16 13 11 13 9 6 4 8 11 13 15 15 13 15 14 15 18 17 20 19 18 23 21 19 22 22 23 23
12 18 19 20 18 18 20 22 21 18 17 18 19 17 16 16 13 11 9 7 5 5 5 8 10 12 12 13 12 13 12 14 16 16 17 17 19 22 21 19 25 23 24 23
15 16 17 18 18 17 18 20 21 21 20 18 17 17 18 14 12 10 8 6 3 4 5 7 8 9 10 11 11 11 11 13 15 14 14 17 20 22 20 22 25 23 23 24
16 16 15 15 17 18 20 20 20 20 19 16 16 14 12 10 7 8 7 2 2 3 4 6 6 7 9 10 10 10 10 12 15 13 13 16 19 20 19 22 22 22 23 24
14 14 15 18 23 19 15 14 17 16 15 13 11 10 11 10 7 4 4 2 2 2 4 4 5 7 9 10 10 10 10 13 15 14 14 17 21 22 20 21 22 22 23 24
16 16 17 16 13 12 14 15 17 15 12 10 9 7 6 4 2 6 2 2 3 4 5 5 6 8 10 11 11 10 11 13 15 15 16 20 22 23 22 21 21 22 23 24
16 15 16 16 14 14 14 13 12 10 9 9 6 6 6 4 3 2 1 3 4 5 5 5 7 9 11 11 12 10 10 12 15 15 17 20 23 23 22 22 21 22 24 23
20 19 19 18 16 15 13 10 8 6 6 5 5 9 7 5 3 0 3 5 6 7 6 6 7 9 11 11 12 10 10 13 14 15 18 22 24 23 22 22 21 22 22 23

GFSNGP_925_spd_036.txt.gz
Wind_Speed
4 4 4 5 4 8 7 5 6 7 8 9 7 5 7 6 3 3 3 4 4 4 4 8 11 11 14 18 18 19 19 22 23 23 22 21 19 20 18 16 15 10 5 4
2 2 2 3 5 5 4 3 5 6 7 7 3 1 4 4 5 7 7 6 4 3 1 4 10 14 16 17 18 17 20 21 16 15 12 13 15 17 16 19 17 10 4 6
4 3 4 7 9 9 6 5 7 7 10 6 2 3 3 5 6 8 8 8 9 9 11 11 2 8 10 10 12 13 12 12 11 11 13 16 19 19 17 13 8 3 2 11
3 2 2 7 1 3 8 7 6 5 3 6 7 4 6 6 5 8 7 9 8 10 14 18 15 14 13 12 14 17 17 17 18 21 24 21 16 14 9 7 8 9 8 10
5 4 5 4 5 7 8 8 7 6 6 7 7 5 6 7 8 7 6 6 9 15 17 18 18 17 20 22 23 24 23 24 24 22 19 14 10 7 4 10 11 9 10 17
3 5 8 8 5 5 4 4 8 8 9 9 6 4 3 5 4 7 11 14 16 18 20 21 18 20 25 25 26 26 25 22 16 12 7 4 1 6 7 9 11 14 17 15
2 3 7 8 4 4 6 8 8 11 8 8 5 3 7 8 8 12 14 16 19 22 22 21 21 26 27 25 22 17 13 10 6 3 3 6 5 6 10 12 15 17 16 20
3 3 7 7 4 9 7 1 6 7 8 7 8 9 9 9 8 10 14 16 19 22 23 21 22 25 22 18 11 9 8 8 7 4 2 5 8 9 11 14 15 18 21 25
9 7 4 6 5 5 4 6 7 8 6 10 12 6 7 9 9 10 15 19 21 23 24 21 18 19 21 14 12 10 9 8 7 7 7 8 10 12 14 16 18 22 24 27
4 5 6 5 3 2 2 4 5 4 8 9 10 11 12 10 9 11 16 19 22 24 21 21 19 18 15 12 10 10 10 11 11 12 12 13 14 15 17 20 23 25 26 25
3 4 2 6 5 4 4 7 9 8 5 11 15 12 12 10 9 13 16 18 18 18 19 19 18 19 17 14 11 12 11 12 13 14 15 17 17 18 20 21 21 24 24 27
7 9 7 5 9 7 7 6 8 14 10 8 11 13 13 10 14 16 17 18 19 19 21 20 19 18 16 15 14 13 14 14 15 17 18 19 21 23 21 20 21 23 25 26
5 8 4 9 8 4 9 8 9 11 13 14 14 19 19 15 15 20 20 20 19 20 20 18 17 17 16 15 13 14 14 14 17 19 19 18 18 20 24 25 21 22 24 26
10 13 6 5 6 9 13 12 19 19 18 18 20 20 22 19 21 19 18 19 18 17 17 15 14 14 14 13 13 14 14 14 16 17 17 18 19 19 19 21 26 29 26 27
2 5 7 15 15 13 16 16 15 13 12 15 19 20 21 19 17 17 17 17 19 18 15 12 12 12 12 13 14 15 14 14 16 15 16 16 17 17 17 18 19 21 27 27
12 12 14 16 15 14 14 12 16 13 12 15 17 18 18 20 19 17 16 16 15 13 12 12 12 11 11 12 11 13 14 13 15 14 16 16 18 15 16 18 19 19 20 24
17 9 13 14 14 14 12 11 14 13 16 17 18 21 22 21 19 18 16 17 17 15 11 11 10 9 9 10 9 12 13 13 15 15 16 17 18 16 17 17 18 19 21 23
7 9 8 15 16 15 12 10 17 19 17 20 22 23 20 16 16 17 18 17 15 12 10 9 9 8 8 10 9 11 12 13 14 13 16 17 16 15 19 17 16 20 23 26
10 14 14 13 15 13 13 14 15 21 24 25 23 17 19 19 21 21 17 15 12 9 6 6 7 9 9 11 11 11 11 13 13 13 14 15 14 18 19 17 19 24 25 24
14 18 20 21 20 22 18 17 19 21 21 25 24 20 18 19 21 18 13 12 8 7 4 5 6 8 10 10 10 11 11 12 14 13 13 14 16 19 19 17 21 24 24 24
13 16 17 18 19 18 22 20 21 19 19 21 19 17 17 19 16 14 12 9 5 4 3 4 6 7 8 9 10 10 10 11 13 12 12 15 17 20 20 19 22 23 24 25
13 13 17 20 19 18 17 18 20 22 21 20 20 21 21 16 14 10 7 7 5 2 3 4 5 6 8 8 9 9 9 10 12 13 12 14 18 21 22 22 23 23 24 24
16 18 18 18 17 17 18 19 19 21 20 19 19 17 14 13 9 9 7 4 3 2 4 5 6 6 8 9 9 9 8 9 12 13 12 15 18 20 21 22 22 22 23 24
18 18 18 20 22 19 16 14 17 17 17 14 13 11 12 11 8 5 6 4 1 3 5 6 6 7 8 9 9 9 8 9 11 13 13 15 18 20 21 22 22 23 23 24
18 18 19 18 15 13 16 15 17 15 14 12 9 7 5 4 1 6 2 1 3 5 7 7 7 7 8 9 10 10 10 10 12 14 15 17 20 23 23 22 22 23 23 24
19 18 19 19 16 15 15 13 12 11 11 9 6 6 5 4 4 3 0 2 4 7 8 8 8 8 9 9 11 12 11 11 14 16 16 18 22 24 24 23 23 23 24 24
21 20 19 19 18 15 13 11 10 7 5 4 3 6 5 4 2 1 3 4 6 7 8 8 9 9 10 12 13 12 12 13 16 17 17 20 23 25 24 24 23 23 23 23

GFSNGP_925_spd_039.txt.gz
Wind_Speed
4 3 5 5 6 11 9 6 7 8 9 8 7 6 5 6 5 4 5 4 3 3 4 4 4 5 5 6 7 7 7 7 8 9 10 11 12 13 16 20 21 19 16 15
4 3 5 5 3 9 10 2 8 5 10 9 3 3 1 2 4 8 9 10 10 8 6 4 2 2 5 8 7 7 7 8 9 10 9 10 10 12 13 13 15 14 11 5
4 1 1 4 8 10 4 5 6 8 11 4 6 6 5 6 8 8 8 9 10 10 11 11 10 7 8 8 9 10 10 10 11 12 13 13 15 19 22 20 14 10 4 16
3 2 7 2 1 3 11 9 10 8 7 6 4 6 6 4 9 8 7 9 9 10 12 13 14 16 16 15 15 15 14 14 14 16 19 21 21 16 13 10 6 9 13 17
5 5 4 2 5 7 7 15 11 13 6 6 12 8 4 3 6 8 8 9 12 12 14 15 16 17 20 20 18 18 17 16 16 18 17 15 12 7 4 5 9 12 15 13
3 5 9 4 3 5 4 13 8 11 11 17 12 7 5 8 7 9 11 12 14 15 16 18 17 18 23 21 21 21 19 18 15 12 9 7 3 1 5 6 8 8 11 13
3 3 6 6 4 6 6 12 6 12 14 16 9 1 11 12 10 11 13 15 16 18 20 19 19 22 25 22 19 15 13 11 10 8 7 5 4 3 5 7 9 12 15 16
3 2 6 8 6 10 6 2 5 10 12 11 10 13 14 13 12 13 16 17 18 22 21 19 18 21 20 17 12 13 14 13 10 7 6 5 5 6 8 9 10 13 16 18
9 7 2 10 4 8 4 4 5 11 10 13 16 11 14 14 13 14 18 19 19 22 22 19 18 19 20 13 12 13 13 11 10 8 7 7 6 7 9 9 11 14 15 18
3 6 7 7 3 3 5 5 5 7 14 16 15 17 16 14 14 15 19 20 21 23 22 19 17 17 16 14 12 12 11 10 8 8 7 8 8 8 10 12 14 15 17 19
3 4 2 9 11 6 6 6 9 9 9 13 19 17 17 15 15 19 20 20 20 21 20 19 16 18 17 15 11 11 10 8 8 8 10 10 10 10 10 10 12 16 18 20
7 9 7 8 14 10 11 11 13 14 13 13 16 19 18 15 20 22 21 21 21 20 21 17 17 17 14 12 11 9 9 8 9 9 9 9 10 11 10 10 12 12 14 17
4 5 3 5 5 8 9 13 11 14 16 19 17 23 23 19 22 23 23 22 21 20 19 17 16 15 12 11 11 11 9 8 7 9 9 10 11 12 14 13 13 11 15 17
7 10 3 4 5 6 10 12 18 18 18 19 24 24 25 24 24 23 21 21 21 20 17 15 14 14 11 10 10 10 9 11 9 8 9 10 12 12 13 15 17 17 15 16
2 7 4 12 12 13 13 15 16 15 15 16 23 25 26 25 22 21 22 21 20 18 16 13 13 11 9 9 9 9 8 8 8 7 8 9 10 10 11 14 15 17 19 19
7 6 11 10 15 15 16 14 16 15 15 15 19 23 25 26 25 23 21 19 19 16 13 14 12 9 8 8 8 8 8 9 9 7 8 9 10 10 12 13 14 16 18 21
7 4 8 11 13 13 11 10 11 14 14 17 21 24 28 28 24 21 18 18 22 19 14 12 10 8 8 8 7 7 6 6 8 6 8 9 9 10 11 12 13 14 16 17
4 8 6 10 9 14 13 14 16 18 15 20 20 22 20 17 19 20 19 19 20 16 12 10 9 8 8 7 6 5 6 6 6 6 7 8 8 9 10 11 12 14 16 17
9 15 16 13 12 16 13 13 18 23 25 26 25 19 17 17 18 19 17 17 15 13 9 8 7 7 7 7 6 6 7 8 6 6 7 7 8 9 10 11 12 14 15 17
13 17 20 17 19 20 17 21 24 23 20 21 24 20 18 18 21 20 14 11 8 10 9 7 6 5 5 5 6 6 7 8 6 5 7 8 9 11 11 12 12 13 15 15
14 13 14 16 17 21 22 23 24 21 19 18 20 17 18 19 19 17 12 10 8 9 7 5 4 4 4 4 5 6 6 7 7 8 7 8 10 11 12 12 13 14 15 15
11 13 15 19 20 21 21 22 23 21 20 19 20 22 22 16 15 10 7 9 9 7 5 3 2 3 4 4 5 6 5 6 8 9 7 8 9 12 13 13 14 15 15 16
16 18 19 19 19 20 20 19 18 20 19 18 18 15 13 11 9 9 8 7 7 5 3 2 2 2 3 5 6 7 7 7 8 10 10 10 11 12 14 15 17 16 17 17
20 21 22 22 23 21 17 15 17 17 19 17 15 14 14 10 7 7 9 8 5 3 1 2 2 3 4 5 7 9 9 9 10 11 11 12 12 15 17 19 19 19 19 20
21 21 21 20 18 16 17 17 17 15 14 13 11 9 8 5 3 8 6 4 2 1 2 4 4 5 6 7 8 9 11 11 11 12 14 14 15 17 19 20 20 21 21 21
21 19 21 21 16 13 12 11 11 9 9 8 6 5 5 6 7 6 4 2 1 3 5 6 6 7 8 9 10 11 12 11 12 14 15 16 17 19 21 22 22 22 22 22
24 22 21 22 22 20 17 13 10 8 7 5 4 2 3 4 3 2 1 2 3 5 6 7 7 8 9 10 11 12 12 13 14 16 17 17 18 20 22 22 22 22 22 21

GFSNGP_925_spd_042.txt.gz
Wind_Speed
16 16 15 17 15 14 16 16 13 13 14 13 12 12 9 2 3 3 4 5 4 5 6 8 9 9 9 9 9 8 8 7 6 6 6 6 6 7 8 10 12 15 15 18
12 12 13 15 16 16 18 17 13 17 18 14 14 6 7 3 3 5 6 6 7 7 8 9 10 12 11 11 10 9 9 10 9 9 9 9 9 9 10 12 14 18 14 14
14 10 9 10 14 16 15 14 16 16 16 15 11 12 9 5 6 8 10 10 10 10 10 12 12 13 14 14 13 13 13 12 11 11 11 12 12 13 14 13 13 13 13 13
6 4 8 12 4 16 18 18 17 16 17 14 11 4 5 5 10 11 11 11 10 11 13 15 16 17 17 16 16 16 15 14 13 13 14 13 13 12 11 10 8 8 9 11
5 9 10 5 6 9 12 18 15 18 17 9 5 8 6 5 7 10 10 9 11 12 14 16 18 18 20 19 18 18 17 16 16 15 14 12 10 8 5 4 4 5 6 11
4 7 9 9 13 10 4 16 9 12 14 12 13 9 7 13 11 10 12 13 14 15 16 18 17 18 20 19 19 19 18 17 14 12 10 8 5 3 1 2 3 4 6 9
10 7 6 3 10 12 9 14 3 8 10 14 14 5 18 17 13 13 13 15 15 15 17 18 18 20 21 20 19 17 15 14 12 11 10 7 5 3 2 3 4 6 8 10
7 6 10 12 11 11 12 2 6 8 10 15 10 13 17 17 15 14 16 16 16 17 18 17 17 19 20 19 16 15 15 13 10 9 7 5 4 4 4 5 6 8 10 12
9 6 4 20 14 17 7 6 7 9 11 15 15 17 17 17 16 15 18 18 18 20 19 17 16 16 19 17 16 15 13 11 10 8 6 5 5 5 5 6 7 10 11 13
2 9 12 13 15 6 11 9 7 9 14 18 19 19 18 17 15 15 19 19 20 21 19 18 16 16 17 15 14 13 12 10 8 7 5 5 4 4 5 7 8 10 12 13
7 12 4 11 14 15 10 7 7 10 17 21 20 20 20 18 17 19 21 21 21 20 19 18 17 16 14 12 12 12 10 8 7 6 5 4 5 4 5 5 6 8 10 12
7 10 9 15 7 14 15 15 13 15 17 17 19 21 20 18 21 23 23 22 21 20 21 19 17 16 13 10 10 10 9 7 6 5 5 4 4 2 6 6 7 5 7 10
8 2 6 2 6 9 14 12 12 14 15 20 18 19 21 18 24 24 24 23 22 22 21 19 17 15 11 10 10 10 9 7 5 5 4 4 4 4 5 5 7 5 7 10
6 5 5 7 5 9 10 9 9 11 14 15 19 23 23 22 25 24 23 23 24 23 21 19 17 14 11 10 10 10 9 9 5 4 4 4 4 4 5 6 8 9 9 11
8 3 2 3 4 4 12 15 13 14 14 15 21 22 24 22 22 23 23 23 23 22 20 18 16 14 10 10 9 9 6 5 5 4 4 3 3 4 5 6 8 10 12 12
4 5 6 8 5 6 7 8 14 12 14 15 15 21 24 24 24 23 21 19 18 15 14 15 15 12 10 8 7 7 7 6 4 3 3 3 4 5 6 7 8 9 11 13
4 3 4 8 12 11 12 8 9 13 14 14 18 23 25 26 27 24 21 21 20 15 11 11 11 10 10 7 6 5 5 3 3 3 3 4 4 5 6 7 8 10 11 12
2 1 5 7 12 13 11 13 12 16 14 22 23 27 26 22 19 22 20 20 20 16 11 9 9 9 8 6 5 5 5 3 2 2 2 3 4 5 6 7 9 11 12 13
6 7 7 9 10 12 14 15 19 25 25 26 24 20 24 23 24 22 21 15 13 15 10 8 9 8 7 6 5 5 4 3 1 1 3 3 4 5 6 8 10 11 13 14
12 15 16 15 17 15 14 20 26 24 22 27 27 22 21 19 21 21 16 12 8 11 10 8 7 6 6 5 5 3 3 2 2 2 3 4 5 6 7 8 10 12 13 14
13 14 14 15 16 19 21 23 24 21 20 22 23 21 20 18 17 17 14 12 10 9 9 7 5 4 3 2 3 2 1 1 2 3 4 5 6 7 8 10 11 12 13 14
11 14 15 19 19 22 23 24 26 24 22 22 22 22 21 17 15 14 10 11 9 7 6 4 3 3 2 2 2 3 3 3 4 4 5 5 6 8 9 10 12 13 14 15
19 21 22 22 22 23 26 26 23 22 20 19 19 17 14 12 10 9 8 7 7 6 4 3 1 2 3 2 4 4 5 5 6 6 6 6 7 8 9 11 13 14 14 15
23 24 23 23 25 25 20 20 21 21 21 19 17 13 11 11 10 8 11 9 7 4 3 1 1 3 3 4 5 6 6 7 7 8 8 8 9 10 11 12 14 14 15 16
23 23 22 22 20 18 20 18 19 18 17 16 13 11 9 7 4 6 6 5 3 3 0 3 4 5 4 6 6 7 8 8 9 9 9 10 11 11 12 13 14 15 16 15
24 22 23 24 20 17 15 14 15 13 11 10 9 8 7 7 8 6 5 4 2 2 2 3 3 5 6 7 8 8 9 10 9 10 11 12 12 13 14 14 15 15 15 16
25 22 21 22 22 20 18 16 14 13 11 9 7 5 5 4 4 4 3 2 2 2 4 5 6 7 7 8 9 10 10 10 11 12 13 13 13 13 14 15 15 15 16 16

GFSNGP_925_spd_045.txt.gz
Wind_Speed
22 20 15 20 20 21 21 18 17 15 16 13 12 9 10 6 2 4 6 7 7 9 9 12 12 12 14 12 13 13 12 12 11 9 10 10 10 9 9 9 11 13 14 14
22 21 18 17 18 19 19 18 18 18 19 13 12 12 10 10 5 8 6 6 6 7 9 10 12 13 14 14 13 12 14 13 13 12 12 11 11 11 11 11 11 14 13 15
16 17 18 17 18 20 18 18 16 17 15 15 14 12 9 11 7 7 8 8 9 9 9 11 13 14 15 15 16 16 17 16 15 14 14 13 12 12 11 10 11 10 9 9
10 3 18 10 16 20 21 21 19 18 18 18 17 14 6 2 7 9 10 10 11 11 14 16 17 18 18 18 18 18 18 17 16 15 15 14 13 13 11 10 9 7 5 3
9 12 14 18 14 11 15 17 18 18 17 16 13 2 6 5 8 12 13 13 14 16 17 18 18 18 19 18 18 18 18 17 16 16 15 14 13 11 9 8 7 5 5 4
7 14 18 13 16 14 14 15 16 14 13 8 5 7 10 15 14 14 14 15 17 17 18 18 18 18 19 19 18 18 18 17 15 14 12 11 10 8 4 4 4 3 2 3
12 8 8 10 13 12 15 11 5 4 7 8 10 11 6 17 16 17 17 17 18 18 17 18 18 19 19 19 18 18 17 16 14 11 10 9 9 7 5 4 2 1 2 4
9 13 16 4 9 12 15 17 7 9 9 9 7 9 16 17 18 17 16 19 18 18 18 19 19 19 19 18 18 17 16 14 13 11 9 8 7 5 3 2 1 2 3 5
9 6 9 14 13 17 16 13 10 11 9 10 14 15 18 18 18 17 20 21 20 19 19 18 17 18 19 19 18 16 15 14 12 10 8 6 4 3 2 2 3 4 5 6
13 11 12 9 15 15 9 15 13 10 10 12 17 18 19 18 17 17 21 21 21 21 20 19 18 16 17 17 16 16 14 13 11 9 7 5 4 3 3 3 3 4 5 7
17 18 18 15 11 12 14 11 11 9 11 14 16 19 20 19 18 17 20 21 21 20 20 19 18 18 17 16 16 15 13 11 9 7 5 5 5 5 5 5 4 3 4 5
8 11 8 11 10 5 13 14 13 13 13 15 18 19 20 18 18 20 20 22 21 21 21 20 19 17 15 14 14 14 13 9 7 6 5 4 3 5 3 2 5 3 4 5
12 12 8 11 6 8 12 11 10 13 14 15 16 16 18 16 21 22 23 22 20 20 20 19 18 16 13 12 13 13 11 10 8 6 4 3 2 1 1 1 5 3 3 6
15 12 10 10 5 4 8 8 7 10 12 14 15 19 20 16 21 22 21 21 22 20 19 18 17 15 12 12 13 12 11 11 7 5 3 2 2 1 2 3 4 4 5 7
9 6 12 7 4 3 4 6 6 9 9 11 17 16 20 17 16 20 21 22 21 20 20 19 18 16 12 12 11 9 7 6 7 5 3 3 1 1 2 4 5 7 8 8
7 7 8 8 6 2 5 9 11 11 9 8 12 13 18 20 21 23 22 23 23 20 20 21 19 15 11 10 9 8 7 8 6 4 3 1 1 2 3 4 6 7 8 9
8 8 7 8 6 5 6 5 6 9 14 12 12 20 21 24 24 24 23 23 24 22 21 21 18 13 10 8 6 4 3 3 4 2 1 0 2 3 4 5 6 7 8 8
8 7 7 7 4 4 4 5 8 11 12 19 21 29 27 23 18 22 25 26 25 23 18 15 13 10 9 7 6 5 4 2 1 0 1 2 3 4 4 6 7 8 10 10
10 7 7 9 8 10 10 12 15 20 24 25 26 22 26 26 24 23 23 23 21 18 13 12 11 10 8 7 5 4 3 1 1 1 2 3 5 5 6 7 8 9 11 12
14 16 18 17 20 19 13 21 24 24 23 25 27 26 24 23 23 22 19 17 15 15 14 11 9 8 6 5 6 3 2 1 2 3 4 5 6 7 8 8 9 11 12 12
12 12 14 15 16 21 22 23 24 23 23 24 25 22 23 22 24 21 17 16 13 13 12 9 6 5 4 3 3 1 1 2 3 5 6 7 8 9 9 10 11 11 12 13
13 13 15 21 21 23 26 27 28 28 27 26 25 24 23 21 21 20 15 15 12 10 8 6 5 4 2 2 1 2 3 4 6 6 7 8 9 10 10 11 12 12 13 14
21 22 23 24 24 25 29 28 27 26 24 22 20 19 18 15 11 12 12 11 10 7 6 5 3 1 1 1 3 4 5 6 7 8 8 9 10 10 11 12 13 14 14 14
23 25 24 24 24 25 20 23 25 25 25 22 19 16 13 13 13 13 13 11 10 6 6 4 2 1 3 4 5 6 7 8 9 9 9 9 11 11 12 13 14 14 15 15
25 24 23 22 20 18 20 19 20 19 18 18 16 15 13 14 11 10 9 8 6 4 4 3 3 5 5 6 7 7 9 9 10 10 12 12 12 13 14 14 14 15 16 16
24 21 23 25 22 20 19 18 18 16 13 14 14 13 12 11 10 8 7 6 5 5 5 5 5 7 8 8 8 10 10 11 11 11 11 13 14 14 14 14 15 15 16 16
24 21 20 22 22 21 20 19 17 16 16 14 13 12 11 9 8 7 6 6 6 5 6 7 8 8 10 9 11 11 11 11 11 12 13 14 14 14 14 14 15 15 16 16

GFSNGP_925_spd_048.txt.gz
Wind_Speed
15 18 18 20 21 20 20 15 14 11 16 17 12 6 3 6 4 3 4 4 5 6 10 13 11 13 13 14 12 18 25 23 20 16 13 11 10 10 10 11 12 14 16 18
15 16 20 13 22 19 19 21 19 19 17 15 13 11 14 8 8 9 5 6 6 6 12 14 16 16 16 16 13 15 24 23 23 21 18 15 16 16 16 14 15 16 16 16
12 15 18 19 18 19 15 15 12 15 12 12 8 13 9 7 7 6 6 5 4 5 9 16 15 20 17 17 16 18 18 19 19 19 18 16 17 16 17 16 16 13 12 12
4 1 22 10 13 15 14 15 18 16 13 12 11 11 11 4 3 7 9 8 5 5 11 18 19 19 20 19 19 20 20 19 18 18 18 17 17 17 15 15 13 12 10 7
5 10 12 16 16 11 11 16 19 19 17 16 14 3 2 3 2 7 8 8 8 10 13 17 20 22 21 22 21 21 21 20 19 19 20 19 18 17 15 14 12 13 11 6
2 8 17 9 14 16 14 14 11 13 13 12 10 3 3 9 6 10 11 14 15 17 18 19 20 22 22 22 22 20 21 21 20 19 19 18 17 15 14 13 10 8 7 7
9 7 5 6 14 16 19 8 9 10 15 6 1 1 6 11 10 12 14 17 20 19 18 20 22 23 21 20 19 21 21 20 19 19 18 16 14 13 13 11 13 10 7 6
6 6 13 1 7 18 9 10 7 10 7 3 4 8 10 13 14 14 15 19 22 19 19 21 21 21 21 20 22 22 21 20 18 18 16 17 15 12 11 11 10 9 8 6
7 3 13 10 11 6 7 6 7 6 7 6 10 8 12 13 14 15 14 19 21 20 19 19 20 20 21 21 22 21 20 19 18 16 15 14 14 11 11 11 9 9 6 5
5 14 17 10 6 5 8 8 10 9 9 2 11 12 13 12 13 13 16 18 20 21 19 17 18 19 20 20 20 19 19 18 17 16 14 12 12 9 11 10 8 6 4 4
11 14 17 17 10 17 6 5 7 6 5 7 6 12 12 13 14 13 16 19 20 19 18 19 20 21 21 20 20 19 19 16 14 14 14 13 14 12 8 8 6 5 6 5
4 7 7 5 5 14 6 6 12 5 5 6 5 10 12 11 12 15 16 19 18 18 19 19 19 19 18 18 18 19 18 17 15 13 11 13 12 10 7 5 5 3 3 2
8 2 1 3 7 7 6 9 11 8 8 7 6 7 9 9 13 16 17 19 18 18 18 19 18 17 14 15 19 20 20 16 15 12 12 11 8 7 10 5 2 1 1 3
13 7 9 10 3 7 6 10 12 5 4 7 8 12 12 8 10 11 15 17 20 21 20 20 19 17 14 17 22 22 19 17 16 13 11 9 7 5 3 3 1 4 4 2
10 9 7 7 5 7 6 6 6 7 4 4 4 8 13 13 11 13 15 21 24 23 21 20 18 16 14 17 19 18 17 16 14 11 9 8 6 4 2 1 1 3 3 3
11 7 7 8 6 5 5 5 5 5 7 6 7 11 20 23 20 23 24 25 25 19 22 25 20 15 17 16 16 16 15 14 11 9 8 5 4 2 1 1 3 5 5 6
10 10 10 9 7 3 5 4 4 7 9 12 13 23 30 30 30 31 32 33 32 30 27 25 21 19 20 16 16 13 11 9 9 7 6 4 2 1 2 3 4 5 7 8
13 11 11 9 7 6 9 13 13 16 15 22 26 29 27 25 18 25 27 30 30 28 23 18 15 15 15 13 11 11 9 7 5 5 3 3 1 1 2 4 5 7 8 9
14 14 16 17 14 15 13 13 15 21 22 24 28 24 27 27 26 26 26 25 21 20 16 15 15 15 13 12 9 8 7 5 3 2 2 1 2 1 2 5 5 7 9 11
15 18 20 19 24 21 14 19 22 24 22 27 29 28 25 24 24 23 23 21 16 16 14 13 13 13 11 10 8 6 6 4 2 2 1 4 3 3 5 7 7 8 9 10
15 15 16 18 20 25 25 24 26 25 25 27 28 25 26 25 23 21 20 16 15 14 14 12 11 9 7 6 5 5 4 3 3 4 4 5 5 7 7 8 8 8 10 10
15 15 18 23 23 25 27 28 29 29 29 28 27 26 25 23 22 21 16 16 14 11 11 9 8 8 6 6 4 4 4 4 4 6 7 6 7 8 8 9 9 10 10 12
21 23 25 24 24 26 30 29 28 28 27 24 22 21 19 15 14 13 11 11 11 10 11 8 7 7 6 6 5 6 6 7 8 8 8 8 8 8 10 11 10 11 13 12
24 25 26 26 27 26 20 23 26 26 26 25 26 21 14 16 18 18 18 14 10 10 10 7 7 8 7 7 6 6 7 8 9 10 8 10 11 11 10 11 12 11 13 12
26 26 25 23 20 17 18 18 20 20 21 21 21 22 21 19 16 14 13 12 11 9 9 10 10 11 8 8 8 7 9 9 10 12 13 10 10 12 14 14 13 13 13 16
22 21 23 25 23 21 20 19 19 19 17 18 18 18 17 16 14 12 11 10 10 8 8 7 9 7 9 10 12 12 13 12 11 11 11 11 13 15 16 15 14 14 14 15
23 20 19 20 22 21 21 20 17 17 19 15 15 15 15 13 13 12 11 11 9 10 10 11 10 11 10 11 11 11 12 14 13 13 13 12 14 15 16 15 15 15 17 19

GFSNGP_925_spd_051.txt.gz
Wind_Speed
8 11 13 16 14 16 15 9 7 7 7 8 12 7 7 7 5 2 8 7 8 8 7 9 14 20 25 26 29 36 33 33 29 27 25 25 23 20 20 20 19 19 20 20
12 11 7 13 11 9 6 10 12 11 15 17 13 8 6 9 9 7 8 9 8 8 7 9 16 21 25 25 24 26 27 28 28 26 23 21 20 18 16 16 17 17 16 17
7 7 4 14 10 15 13 12 9 8 9 7 9 10 10 11 11 13 10 8 9 9 10 13 19 27 26 23 24 24 26 25 25 26 25 22 20 20 19 18 17 17 17 16
4 4 13 7 9 6 16 14 9 3 4 5 7 8 8 5 8 9 10 9 8 10 11 20 26 29 31 30 30 27 23 24 28 28 28 27 25 24 21 20 18 17 17 16
6 11 5 11 3 3 5 7 4 5 6 7 8 3 1 5 6 7 8 7 7 16 22 25 26 29 31 28 30 29 27 25 26 28 27 26 26 24 23 21 20 19 17 17
1 7 14 3 6 7 4 11 8 6 7 7 2 3 5 6 8 8 8 13 16 24 25 26 28 30 28 25 27 23 25 25 26 26 28 27 25 24 22 21 21 20 15 12
3 3 6 5 8 4 8 3 10 9 7 3 4 6 6 8 6 8 12 16 23 24 21 25 29 30 23 23 20 26 27 27 28 29 30 29 26 24 23 19 18 16 16 17
3 3 7 6 6 11 4 11 13 11 5 2 6 7 10 9 12 12 12 15 22 20 22 26 29 29 23 22 27 30 32 32 31 31 27 23 23 22 20 24 23 20 20 21
8 7 6 4 4 5 8 5 2 4 5 7 6 1 6 8 10 9 10 14 21 21 21 24 26 28 23 22 31 32 31 29 26 23 24 24 25 26 25 23 23 21 22 22
4 5 10 13 6 8 1 10 12 4 3 5 7 9 8 4 7 8 7 11 18 21 17 16 23 25 29 29 30 28 25 25 25 27 27 24 20 24 24 22 20 18 17 19
3 5 2 5 7 3 8 17 15 17 3 4 5 6 9 9 8 7 10 14 20 17 17 18 26 27 27 26 25 25 26 24 25 24 26 25 23 20 20 16 14 16 13 11
5 8 7 9 9 9 8 9 17 10 12 7 10 11 10 10 9 10 11 17 19 21 23 22 27 26 24 24 27 27 24 24 19 22 23 23 22 19 13 11 9 8 7 5
4 2 4 1 6 4 6 6 5 6 14 11 5 10 11 9 13 18 19 23 21 21 25 26 24 20 17 22 27 28 27 22 21 21 20 19 17 17 17 10 8 6 5 5
11 5 4 7 2 2 4 5 6 5 7 7 3 3 8 10 12 15 17 26 31 31 30 31 31 27 24 27 30 29 25 22 21 20 19 20 18 12 11 10 8 6 4 4
13 7 3 4 5 7 6 7 8 8 8 8 7 7 10 14 14 17 25 31 34 34 29 29 28 25 25 28 29 27 25 22 19 16 13 11 9 8 8 7 7 6 5 10
9 9 10 9 8 6 8 9 8 11 11 12 15 16 22 29 29 28 26 29 33 24 27 31 30 26 24 24 25 23 20 16 14 14 12 10 7 7 5 5 4 3 3 7
9 11 11 12 11 13 13 11 12 12 13 16 16 21 28 32 34 33 33 32 35 34 33 35 30 24 21 19 19 17 16 13 12 10 8 6 4 3 3 2 1 1 3 2
9 10 11 10 10 12 15 15 14 14 15 19 23 26 26 25 19 26 30 33 36 34 28 24 23 20 18 17 17 16 13 11 8 7 5 4 1 1 2 1 2 1 3 5
13 14 14 15 14 14 13 14 17 21 22 24 27 25 27 27 26 25 27 28 26 24 20 19 20 20 19 15 14 13 11 9 7 4 3 3 3 1 1 3 5 6 7 7
15 19 21 20 22 20 14 21 25 25 24 28 28 28 25 25 26 28 29 25 22 20 18 17 18 18 17 14 11 10 9 7 6 5 1 4 2 4 7 6 4 4 6 7
14 17 17 19 20 25 25 24 27 25 26 28 28 24 24 24 24 23 23 19 18 19 17 16 16 14 13 11 9 8 7 6 5 5 5 5 5 5 5 6 7 7 7 8
16 15 19 22 23 24 26 28 29 28 28 27 26 25 25 23 24 25 21 20 16 15 15 15 14 12 11 11 10 9 8 8 8 7 6 7 8 7 7 9 9 9 10 12
21 23 24 24 23 25 29 29 29 28 26 24 24 22 21 18 16 15 13 17 18 15 17 15 13 12 12 12 10 10 10 10 11 10 9 9 11 11 10 9 9 11 11 10
21 22 22 23 26 26 21 24 27 27 27 29 27 24 21 21 23 22 19 16 16 16 16 16 15 13 13 13 12 11 12 11 10 11 13 12 10 10 11 13 14 12 10 11
25 26 25 23 21 19 20 19 22 23 24 25 25 25 24 22 19 17 19 18 13 15 14 15 14 13 13 13 14 13 12 13 12 10 9 10 11 13 14 14 13 12 11 10
22 21 23 25 22 21 20 21 20 18 19 19 21 21 22 20 18 18 17 15 15 16 15 15 13 13 12 13 11 11 12 12 12 12 11 11 12 13 14 14 13 13 15 17
22 21 20 21 22 23 24 22 20 19 20 18 19 20 20 19 17 15 14 15 15 14 14 13 13 13 13 13 14 13 12 12 12 10 10 11 13 13 12 13 15 18 19 20

GFSNGP_925_spd_054.txt.gz
Wind_Speed
13 17 16 18 11 8 9 7 9 8 11 12 10 10 12 10 9 8 11 8 8 10 9 8 16 24 30 31 34 36 33 31 28 30 34 33 35 35 34 32 27 27 25 23
8 13 9 12 16 15 8 4 8 7 9 8 12 7 5 11 10 9 9 10 11 10 9 12 17 23 26 29 31 30 28 27 28 25 27 28 32 37 30 25 24 24 23 21
15 8 12 12 16 7 6 6 6 6 9 8 9 8 9 11 11 10 10 9 10 12 11 17 22 28 26 27 30 28 24 24 26 29 32 31 31 27 24 22 22 20 19 19
4 3 11 16 12 7 13 11 9 6 6 8 8 10 12 9 10 10 10 10 9 7 8 18 21 22 28 28 25 26 26 25 26 28 28 28 28 26 23 22 21 21 21 22
2 6 4 9 5 7 7 7 7 7 3 5 5 2 3 7 8 13 11 7 6 12 17 23 25 27 28 26 27 27 26 27 28 32 32 31 29 28 24 24 23 23 23 23
6 7 16 3 6 3 3 6 6 5 2 6 1 1 5 6 5 6 8 10 12 17 22 25 25 29 26 22 23 22 26 29 30 30 29 29 29 28 27 24 24 24 22 19
9 5 8 5 6 8 8 6 3 3 2 5 6 7 6 8 4 5 7 12 19 22 21 24 29 29 22 23 20 25 28 28 27 27 28 28 27 26 27 26 25 24 23 19
5 5 7 2 5 4 2 6 6 6 4 7 9 10 6 8 8 9 10 10 16 16 17 24 28 28 21 20 25 27 28 27 27 26 26 27 28 27 26 26 26 24 26 23
6 5 9 4 4 4 4 3 3 4 10 6 6 6 7 7 10 8 11 10 16 18 20 22 25 26 21 22 29 30 29 27 27 27 26 26 28 27 26 26 29 26 27 25
6 14 17 12 5 7 5 5 4 2 7 5 6 4 8 7 7 8 8 10 17 19 15 16 22 23 28 29 30 29 27 26 28 26 23 21 22 23 26 28 27 25 23 22
7 6 5 8 7 6 7 10 4 5 4 5 6 8 7 5 6 9 10 13 20 18 16 17 23 25 28 31 31 27 26 25 22 21 22 21 19 17 21 18 22 25 21 21
6 9 6 7 9 12 7 5 6 3 4 5 4 9 5 7 9 9 10 15 14 16 20 19 24 25 27 29 32 32 26 24 24 25 24 25 26 23 18 13 11 11 12 10
5 10 5 5 5 5 3 4 7 8 6 4 5 6 5 5 5 12 16 18 18 17 20 23 24 23 23 25 27 29 29 27 27 26 24 23 20 20 19 15 13 11 8 8
15 12 6 11 6 9 7 6 9 10 12 11 9 1 4 6 12 12 13 19 23 27 28 28 28 24 19 27 32 33 32 30 28 24 22 20 17 15 12 10 7 5 4 4
13 11 7 6 10 12 10 8 12 11 11 14 20 14 12 15 17 19 23 26 31 31 29 27 30 27 26 29 33 31 31 30 29 26 22 18 15 14 12 9 7 7 10 10
8 9 13 13 12 12 11 12 11 10 12 13 15 17 23 26 29 30 29 26 27 24 28 32 31 30 30 31 32 29 25 20 19 17 16 15 13 11 9 7 5 5 6 11
8 9 11 12 11 12 12 10 11 11 11 13 15 23 26 27 30 31 31 33 34 31 29 31 28 24 21 19 21 21 21 18 16 14 13 11 10 8 7 6 4 3 3 3
9 9 9 9 8 8 11 11 11 14 14 19 21 26 27 24 18 24 25 29 35 35 31 29 27 25 23 20 19 18 16 15 14 13 11 9 7 6 4 3 3 3 2 1
13 13 13 12 12 13 11 12 17 19 19 20 27 24 26 27 24 24 26 29 26 24 22 26 27 26 24 19 19 17 16 15 13 11 9 7 7 5 4 4 2 1 1 1
16 20 21 20 23 21 15 20 22 24 22 23 26 27 24 23 25 28 29 28 24 21 24 24 25 24 22 19 18 16 15 14 13 10 9 8 6 6 6 6 5 5 4 4
13 16 18 20 21 24 23 22 25 24 24 25 25 23 23 23 22 21 23 21 22 23 24 23 23 21 19 16 16 16 15 14 12 11 10 10 9 8 8 8 7 6 6 7
16 15 18 22 23 24 25 26 27 25 26 26 26 26 26 24 25 27 25 23 22 22 24 24 22 19 17 16 15 15 14 14 13 13 13 12 12 11 11 10 8 8 8 8
20 21 22 22 22 23 26 26 26 26 26 25 24 23 23 21 18 17 15 20 23 23 24 22 18 17 17 17 16 16 15 15 13 12 11 10 9 9 9 10 10 9 8 6
23 23 22 21 22 24 20 23 26 27 27 28 27 24 20 20 22 24 24 22 22 22 21 19 18 18 17 16 15 14 14 13 12 11 10 10 10 11 12 11 11 9 7 9
23 23 23 21 19 16 18 19 21 22 23 24 23 23 23 22 22 18 20 20 19 18 19 16 15 14 14 14 14 15 14 13 11 11 11 11 11 12 12 12 11 11 13 14
20 18 19 20 17 17 17 17 18 17 18 20 22 23 22 20 19 19 19 18 17 16 16 15 14 14 14 13 12 11 10 10 9 9 10 11 12 13 13 12 14 16 19 19
19 17 16 19 20 21 21 19 18 17 19 21 20 20 20 19 19 18 17 16 15 15 14 13 13 14 13 12 11 11 11 10 11 12 13 13 11 11 13 15 18 19 18 17

GFSNGP_925_spd_057.txt.gz
Wind_Speed
12 10 13 8 7 8 7 10 12 10 10 12 11 10 11 10 6 7 9 8 9 12 13 14 22 29 33 37 37 38 39 40 42 38 37 39 38 40 37 36 37 37 32 31
6 8 8 14 16 20 14 7 8 6 6 7 10 10 6 10 10 9 9 10 12 12 11 12 22 28 32 33 34 34 36 39 36 35 36 37 35 32 33 34 34 32 32 30
4 12 9 10 12 17 8 6 7 8 9 7 5 9 11 13 9 11 13 11 11 13 15 16 24 26 28 31 29 32 32 29 32 32 30 28 32 32 30 32 33 31 27 25
1 6 4 7 6 12 15 14 8 6 6 7 9 8 8 8 10 14 11 10 9 9 13 21 21 22 22 22 26 26 25 25 26 28 27 26 26 27 28 27 27 26 23 23
3 4 8 18 6 4 8 19 13 11 9 7 5 2 7 9 7 12 11 12 10 10 14 22 26 26 21 18 21 22 21 23 25 28 27 27 27 27 26 25 21 21 21 22
3 3 6 5 10 14 6 14 6 9 9 7 6 3 6 10 7 10 9 5 8 16 16 20 21 24 22 20 20 19 21 21 23 25 28 28 27 26 23 22 22 20 20 18
4 3 7 7 10 13 5 13 4 5 5 5 6 9 11 6 8 4 4 6 15 17 16 20 24 25 20 21 18 21 22 22 23 24 25 27 26 24 24 22 24 23 22 18
4 4 8 5 7 4 12 8 4 3 3 5 8 10 7 10 7 6 7 6 13 13 15 22 26 27 20 16 20 22 23 23 22 21 20 20 21 22 23 26 27 25 24 22
7 6 6 4 5 7 19 21 7 3 3 5 6 6 9 8 5 6 7 5 12 14 15 19 23 24 19 21 25 24 22 20 19 18 18 20 23 24 24 26 27 22 22 22
2 7 15 13 12 15 22 21 8 5 5 5 7 8 8 6 3 3 1 4 8 14 10 11 18 19 22 25 25 25 25 23 23 23 22 20 21 22 24 24 23 22 21 21
7 8 11 15 17 20 17 15 10 6 7 5 6 6 5 7 6 4 5 5 10 9 9 11 15 16 20 24 27 25 24 24 24 25 25 23 18 17 19 19 24 28 25 26
3 8 9 10 10 11 8 4 5 5 4 2 5 5 2 6 5 3 5 6 10 13 15 16 17 18 21 25 29 31 27 25 26 27 25 27 30 29 19 13 13 15 17 19
5 8 17 16 3 14 8 9 10 10 11 8 9 7 1 5 5 11 13 15 16 15 18 21 22 20 14 16 22 26 30 28 26 25 23 23 21 23 25 23 20 17 15 13
9 11 6 8 7 13 11 9 11 12 13 14 14 17 12 10 15 14 14 19 21 22 24 24 27 26 19 21 23 25 25 23 25 21 22 23 23 21 20 18 16 15 10 9
10 6 6 4 10 15 12 12 15 14 13 14 19 17 18 16 16 18 22 24 27 27 25 27 30 26 25 26 33 30 28 27 27 27 24 21 18 15 14 13 12 14 13 9
15 5 8 11 10 12 12 14 13 13 13 12 14 17 20 24 26 28 28 26 26 21 25 28 29 26 29 32 34 33 30 27 23 20 18 16 14 14 12 10 9 7 8 9
10 5 8 7 7 9 10 11 12 11 12 13 15 18 21 24 27 27 28 29 31 29 27 30 28 26 26 25 27 26 24 23 21 19 18 15 13 13 11 10 9 8 6 4
7 9 8 8 8 7 10 12 11 15 15 19 20 22 22 22 17 21 23 27 33 36 34 31 29 28 27 25 25 25 25 23 22 20 17 16 14 12 11 9 8 7 5 3
12 10 10 12 11 11 11 12 19 21 20 23 24 22 23 24 23 23 25 29 27 26 25 30 30 30 28 25 25 24 24 22 21 18 16 14 14 12 11 9 7 6 6 6
14 17 17 18 18 18 15 19 22 22 21 24 27 26 24 24 25 27 30 30 26 23 26 28 28 28 26 23 23 22 22 20 19 17 16 15 14 14 13 11 10 8 7 6
13 16 16 17 19 25 25 23 25 23 22 28 25 22 23 23 22 21 24 21 22 25 26 27 26 25 23 21 21 20 19 18 17 16 15 14 14 13 12 10 9 8 7 7
14 14 17 20 22 24 25 25 25 24 25 27 24 23 25 25 26 29 27 23 22 24 25 25 22 20 20 19 20 19 18 17 17 16 15 14 13 12 11 10 9 8 7 6
17 19 21 21 21 23 25 25 26 26 26 25 24 24 23 20 17 17 15 18 22 23 24 22 20 19 18 19 18 17 16 16 16 15 14 13 12 11 11 10 10 9 5 4
20 20 18 18 20 21 19 21 24 25 26 26 26 22 20 21 22 22 23 21 21 22 22 19 19 18 18 18 17 17 16 15 13 12 11 10 10 10 10 9 8 6 7 10
17 18 18 17 16 15 17 17 20 20 22 22 22 22 20 18 20 17 19 18 17 18 18 16 16 15 14 14 13 12 11 10 10 9 9 9 10 10 9 8 9 11 13 15
17 15 16 17 15 14 15 16 17 16 17 19 22 20 20 20 19 18 17 15 15 15 15 14 14 13 12 11 11 11 10 9 9 10 10 10 8 8 9 10 13 15 17 17
16 15 15 18 20 18 18 18 18 17 19 19 18 17 18 17 16 16 15 14 14 14 13 13 12 12 11 9 9 9 9 9 9 9 9 8 8 9 11 15 19 20 19 18

GFSNGP_925_spd_060.txt.gz
Wind_Speed
4 4 6 12 9 6 9 6 8 5 8 9 12 11 12 9 8 7 9 8 8 10 12 13 19 24 27 31 33 33 33 34 39 39 37 34 34 37 40 40 42 42 36 35
3 10 12 6 9 10 8 5 6 7 8 10 10 7 7 11 9 9 9 9 9 9 9 12 21 26 29 30 30 32 33 37 38 33 34 35 34 34 35 36 37 34 37 37
1 5 11 4 3 6 9 10 7 12 8 9 6 8 10 11 10 11 12 10 10 12 14 14 23 30 28 32 26 32 33 33 32 32 32 33 31 31 33 33 33 36 35 36
2 3 2 5 11 7 7 11 7 6 5 7 9 8 7 9 8 9 10 12 11 11 8 21 27 28 30 24 29 31 28 28 29 30 29 27 29 30 29 30 31 33 31 29
3 3 4 9 2 4 3 9 6 8 12 12 11 4 6 7 8 10 10 10 10 12 18 22 24 26 26 24 26 27 26 28 29 29 26 27 25 27 25 24 23 23 23 24
2 3 4 4 3 4 5 11 10 14 12 13 3 4 6 8 5 7 7 7 8 12 18 19 21 24 25 20 21 20 22 22 22 22 24 22 21 20 21 21 20 19 18 15
4 5 6 5 5 3 0 7 8 11 16 9 5 5 9 11 7 5 6 6 5 7 11 17 19 23 19 17 13 15 17 17 16 18 19 20 20 19 21 22 22 21 22 19
3 1 9 5 1 3 4 4 3 10 8 14 12 13 7 9 9 8 8 6 6 7 4 8 15 18 14 14 17 19 19 17 17 16 16 18 20 21 23 25 28 27 27 25
7 7 4 3 5 6 3 5 4 7 17 10 13 6 10 9 11 9 8 4 4 5 5 7 7 10 15 16 19 20 19 18 17 16 15 16 20 22 22 24 26 23 22 22
1 3 5 5 6 6 6 10 9 9 16 11 19 7 6 7 7 8 7 5 3 3 6 7 8 6 13 18 18 19 21 19 18 20 21 18 18 18 22 21 21 21 20 20
5 4 7 2 5 11 17 14 16 18 12 12 8 10 4 4 6 5 5 9 11 11 7 9 15 9 10 17 19 20 20 20 20 21 23 24 21 16 17 15 17 25 22 24
4 1 3 5 6 9 12 16 15 14 5 9 12 11 9 6 6 5 7 12 17 17 16 17 17 16 11 13 16 20 21 20 20 21 20 22 25 27 17 10 9 13 18 20
5 9 9 12 2 10 9 14 13 13 13 14 13 11 11 10 14 18 20 19 20 19 18 20 22 20 13 12 16 19 24 23 23 23 20 19 18 22 27 30 25 19 18 16
7 10 3 8 5 10 11 11 9 9 14 14 10 13 14 14 21 22 21 23 17 23 25 24 24 23 17 15 19 23 23 23 23 20 22 24 23 22 20 18 19 21 16 16
9 9 9 6 8 9 8 4 8 12 14 14 18 16 18 16 17 20 22 24 27 28 28 26 25 24 22 22 26 26 25 25 26 26 24 24 21 19 18 18 18 19 18 15
14 13 6 5 7 8 9 10 9 12 15 10 11 18 21 23 26 27 28 28 27 23 26 26 27 25 26 28 29 31 31 30 28 26 24 23 22 20 18 17 15 13 13 12
10 6 10 7 7 9 11 10 8 11 10 11 14 19 22 23 27 28 29 30 32 31 29 29 28 31 30 31 31 29 29 30 27 26 25 23 22 20 19 18 16 16 13 9
6 7 8 7 7 7 9 11 11 14 12 18 19 25 25 22 17 22 25 27 31 34 32 30 32 32 31 29 29 28 29 27 26 24 23 22 21 19 18 17 15 15 12 10
11 10 10 10 11 9 9 10 16 19 18 22 25 22 24 22 22 22 25 29 27 25 26 30 32 32 31 28 28 27 27 26 24 22 21 20 21 19 17 16 15 14 12 11
12 15 16 18 19 17 15 18 21 21 19 23 24 24 23 23 22 25 28 30 26 23 25 26 29 29 27 25 25 25 24 24 22 21 20 20 19 18 17 15 14 13 11 9
11 15 16 18 19 22 23 22 22 22 22 25 25 22 22 21 21 19 23 20 22 24 26 25 25 24 22 22 22 22 22 21 21 20 19 19 19 18 16 14 12 10 8 6
14 14 17 19 20 23 24 24 24 23 22 23 23 22 23 22 23 27 25 22 22 24 25 26 23 21 20 20 21 21 20 20 19 19 19 18 17 15 13 11 10 9 6 4
16 17 18 20 20 21 24 24 24 24 23 22 22 22 21 19 15 14 14 17 22 23 24 22 19 19 18 19 20 20 20 19 18 17 15 14 13 12 11 10 9 7 7 7
17 18 19 19 19 20 18 20 22 23 23 23 22 18 16 17 19 19 21 20 20 21 21 19 18 17 17 17 17 16 16 15 14 13 12 11 10 9 8 7 7 8 9 11
16 17 17 16 16 14 16 15 17 16 17 17 17 16 15 14 17 16 17 18 17 17 17 14 13 13 13 13 13 13 13 12 11 10 9 8 7 7 7 7 9 11 14 15
15 14 14 16 13 13 13 13 14 13 13 16 18 18 18 17 17 16 15 15 14 14 13 12 12 11 11 11 11 10 10 9 9 9 8 7 6 7 9 10 13 17 18 17
16 15 14 16 18 16 16 17 18 15 15 16 16 15 15 14 14 14 13 13 12 12 11 11 11 11 9 8 9 8 8 9 8 7 7 7 8 10 13 17 18 17 16 15

GFSNGP_925_spd_063.txt.gz
Wind_Speed
5 4 3 3 8 9 9 11 10 9 9 10 7 9 14 10 9 8 7 7 8 10 12 13 19 24 27 28 30 32 32 34 39 35 34 34 33 34 35 36 38 37 35 33
2 4 2 6 8 6 6 4 7 10 10 9 12 6 9 14 13 13 13 12 9 10 11 14 21 25 25 25 30 31 32 36 32 30 31 34 32 32 31 33 34 32 34 33
2 4 5 1 2 1 1 1 3 4 10 13 12 10 9 13 12 12 11 11 10 9 12 15 21 27 27 30 26 30 32 31 28 28 29 30 29 28 30 32 30 33 33 33
1 4 2 2 1 4 3 1 4 2 9 12 13 16 14 7 9 12 10 11 10 9 8 17 20 21 25 21 27 28 29 29 28 28 28 26 26 28 28 27 29 29 31 35
2 5 4 8 2 3 3 3 9 7 10 11 18 8 7 8 7 12 10 8 8 14 16 13 17 21 21 20 23 24 26 26 24 24 24 22 22 22 22 25 27 30 29 28
3 3 6 4 2 3 6 2 3 6 9 11 14 7 6 16 16 16 11 12 10 16 16 15 13 13 16 18 21 24 23 21 19 19 19 20 21 21 22 22 22 18 17 18
2 4 4 5 4 4 3 3 9 3 6 7 6 6 13 14 12 12 14 17 15 12 9 12 7 8 10 10 11 9 13 15 15 15 16 17 19 18 19 18 17 16 16 14
4 4 5 2 2 3 6 5 6 9 9 9 10 11 9 12 12 9 12 15 16 9 6 12 6 4 11 9 14 16 17 19 19 19 18 16 17 16 16 18 20 21 23 23
6 4 1 1 1 4 6 8 7 13 18 15 13 13 10 11 11 11 10 10 12 12 12 13 10 4 11 11 12 19 20 18 20 18 15 16 19 19 18 19 21 18 19 20
0 0 3 1 4 8 9 9 11 12 16 16 16 15 11 9 8 8 11 13 16 17 17 18 18 9 12 15 17 19 21 20 20 22 19 17 17 17 21 23 22 21 19 17
3 4 5 7 10 9 13 12 13 12 12 15 14 11 11 7 10 9 10 17 16 14 15 17 18 18 12 7 17 20 17 19 23 23 24 24 22 17 16 14 17 24 22 23
2 4 4 7 11 10 10 12 12 12 13 14 15 13 11 8 9 13 14 16 15 14 17 15 16 17 16 8 8 19 23 13 15 20 22 24 26 29 21 13 10 14 20 22
3 9 7 9 2 9 9 11 10 9 11 11 13 12 11 8 11 17 16 16 16 17 16 16 16 23 19 14 12 18 17 16 18 17 18 19 20 24 28 31 32 27 24 25
6 8 3 6 4 8 8 8 6 6 12 15 14 13 12 12 18 22 16 15 18 20 24 24 26 28 24 20 20 24 25 23 23 23 23 22 21 21 22 23 22 24 24 24
11 10 10 10 6 9 9 9 8 8 8 14 13 10 16 15 14 16 13 15 23 27 26 25 27 28 27 27 30 26 27 26 27 28 26 26 23 21 21 23 23 21 20 21
12 11 8 8 7 9 10 10 7 8 9 10 9 8 21 24 20 21 23 25 27 23 25 26 28 24 28 32 32 32 33 34 31 29 26 23 22 20 17 17 17 16 14 11
8 5 9 8 7 8 9 8 8 7 6 9 13 13 20 21 24 25 26 27 30 31 29 27 25 29 32 33 33 29 29 30 29 28 23 22 20 19 17 17 17 16 15 13
6 6 6 5 6 7 9 11 12 12 10 15 17 20 21 21 15 20 22 24 29 33 31 28 29 31 31 30 29 27 26 24 24 23 20 21 20 18 17 17 16 15 13 14
10 9 11 12 13 12 11 14 16 16 17 19 24 23 23 23 23 22 23 27 26 25 26 28 29 31 29 25 24 22 22 22 22 20 20 21 20 17 17 16 15 13 12 11
12 15 17 19 19 18 17 18 19 19 19 21 23 23 22 22 21 23 27 29 26 21 22 24 26 25 24 23 21 20 20 19 19 19 17 17 17 16 16 15 13 12 10 10
11 15 16 17 18 20 20 19 20 20 20 22 23 21 22 23 22 19 22 20 21 23 24 25 23 19 19 18 20 20 19 19 18 17 16 15 15 14 13 12 11 10 9 8
13 14 15 17 19 20 21 21 21 20 20 20 20 19 20 21 22 26 25 20 16 20 20 21 22 20 19 19 19 18 18 17 17 15 15 13 13 11 11 10 10 9 8 7
16 16 17 18 18 19 21 21 21 20 20 20 20 19 21 19 16 15 15 16 16 20 20 22 20 19 20 21 20 19 18 18 16 15 13 12 11 10 9 9 8 7 6 6
15 15 16 15 16 17 18 17 18 19 20 19 19 16 15 17 19 16 16 17 18 19 19 17 16 16 17 17 17 17 15 15 14 11 9 9 10 8 8 7 6 6 7 9
14 14 13 13 13 13 12 12 14 13 15 15 15 15 15 13 13 13 15 16 15 16 16 14 13 12 13 13 13 13 12 11 9 7 7 7 7 7 6 6 8 10 12 12
12 11 12 12 10 9 9 10 12 10 12 14 14 15 16 16 15 14 14 13 13 12 12 11 11 10 10 10 9 9 8 7 7 6 6 5 5 6 7 10 12 12 12 12
11 10 11 12 12 12 12 11 12 10 11 12 13 12 13 13 12 12 10 10 10 11 11 9 8 7 7 6 7 7 7 6 5 4 5 5 7 10 12 12 12 12 13 13

GFSNGP_925_spd_069.txt.gz
Wind_Speed
15 8 5 8 10 14 16 15 13 13 15 14 6 5 6 6 9 12 11 6 7 7 9 11 17 23 27 28 30 31 32 34 36 35 34 34 34 36 37 38 38 37 38 40
13 10 5 8 10 11 13 10 10 13 11 7 7 6 6 9 11 10 12 10 10 15 11 12 16 20 24 28 29 31 33 36 33 32 34 35 35 35 35 37 38 39 41 39
2 1 4 8 12 8 10 14 13 11 5 2 2 7 7 9 11 14 14 13 13 12 11 9 12 11 19 24 25 29 32 34 34 33 34 35 34 34 37 38 35 39 38 38
4 6 5 5 2 16 11 3 4 10 4 5 6 6 9 10 11 11 12 15 14 12 12 14 14 12 13 17 23 28 31 30 31 32 34 33 34 36 35 35 37 36 36 36
2 3 6 9 3 4 13 8 6 4 4 7 8 7 11 11 12 12 13 12 13 18 17 16 14 15 13 13 17 22 26 29 30 31 32 32 34 36 35 33 32 33 31 30
6 3 4 4 12 7 9 5 7 6 6 9 11 6 6 16 12 13 14 16 18 20 16 16 17 18 16 13 13 18 20 24 26 27 29 29 30 29 28 28 27 26 25 24
9 5 4 10 3 1 10 4 6 8 10 11 10 11 15 16 13 12 10 13 18 18 18 20 22 21 13 12 13 17 16 14 15 19 24 26 24 23 24 20 18 15 15 12
10 9 11 5 3 4 6 7 9 9 10 10 11 14 16 17 15 13 11 13 15 15 18 22 25 22 19 18 20 16 12 9 8 7 5 4 7 11 10 12 15 14 13 12
9 7 8 11 14 10 8 8 9 10 11 12 13 14 15 15 13 13 13 14 17 15 16 21 24 24 20 20 19 19 17 15 10 8 9 7 9 10 10 9 14 16 17 19
4 9 7 10 12 11 10 10 10 10 11 12 13 13 13 12 12 11 14 16 18 16 17 20 23 22 23 21 17 19 24 24 22 22 19 18 15 11 15 12 14 15 14 17
4 7 8 11 12 10 10 11 12 11 11 11 11 11 13 11 13 12 15 17 17 17 16 18 19 21 22 21 14 18 23 23 22 22 23 27 31 21 20 12 12 18 17 19
2 8 7 8 10 11 11 12 12 11 11 11 12 12 12 11 14 15 15 16 15 17 17 18 18 20 23 22 14 13 18 21 22 20 21 22 24 32 36 29 23 23 22 28
5 9 7 9 10 12 11 11 11 10 11 11 13 14 13 10 15 15 17 18 18 17 16 17 18 20 23 21 22 23 21 16 17 20 25 22 21 22 27 37 40 37 34 33
10 11 7 9 5 8 8 8 8 9 10 11 11 13 12 13 15 16 18 17 17 18 20 18 18 24 28 25 24 25 24 23 19 24 21 24 24 22 21 24 24 27 32 31
11 8 6 7 7 8 9 8 6 7 8 10 13 13 13 13 16 18 18 17 18 21 22 22 23 26 25 26 28 26 24 24 24 24 24 25 23 23 22 22 23 22 21 24
11 7 3 5 5 6 7 7 6 7 8 9 11 14 14 15 19 20 21 23 24 22 20 24 28 27 26 23 23 25 27 27 25 24 24 22 21 20 19 20 21 19 17 12
8 8 10 8 6 6 7 6 6 7 8 9 11 12 14 15 19 21 22 23 24 25 25 26 25 27 26 25 22 20 20 23 23 23 21 20 20 19 19 19 19 19 19 20
7 6 6 6 6 5 7 8 9 10 11 12 14 15 15 17 16 18 19 19 21 27 28 27 25 25 26 22 20 18 18 20 19 19 18 18 18 18 18 17 17 15 14 16
9 8 9 10 10 10 10 12 13 13 13 13 16 18 18 18 19 19 20 23 23 22 23 20 21 22 23 22 19 18 18 18 18 18 18 17 18 17 16 16 15 13 12 12
11 13 13 15 15 14 14 14 15 16 14 14 15 17 18 17 15 17 20 23 20 17 16 18 17 19 19 20 18 16 16 16 16 16 15 15 14 13 13 13 12 11 10 10
11 14 15 15 17 17 16 15 16 17 16 16 17 17 16 17 20 15 16 16 17 15 15 18 20 17 17 15 16 16 15 15 15 14 13 12 12 12 11 11 11 10 9 9
12 13 14 15 16 17 16 16 17 16 16 15 12 10 11 12 14 17 17 14 13 15 16 17 16 17 15 15 16 16 16 15 13 12 12 12 11 10 10 10 9 9 7 6
13 13 14 14 15 16 16 16 16 15 15 14 14 14 14 13 12 10 10 13 12 13 12 14 15 15 15 15 14 14 13 13 12 12 11 10 10 9 8 8 7 6 6 6
12 12 12 12 11 12 13 12 12 12 12 12 11 12 8 7 10 10 10 9 10 11 12 12 13 13 12 12 12 12 11 10 10 9 8 8 7 6 6 5 5 5 5 5
10 9 8 7 8 9 8 8 8 8 8 9 9 10 10 10 8 7 7 8 9 8 8 10 11 11 10 10 10 9 9 8 8 7 6 6 6 6 5 6 6 7 6 7
7 8 8 9 7 6 4 3 4 4 4 5 6 6 7 7 6 6 7 7 8 8 8 8 9 8 8 9 8 8 8 7 6 6 6 6 6 6 7 7 7 7 7 7
6 4 5 6 6 6 5 5 3 4 4 4 4 4 4 5 5 5 6 6 7 7 7 7 7 8 7 8 8 8 7 7 8 7 6 7 7 7 8 8 8 8 8 8

GFSNGP_925_spd_072.txt.gz
Wind_Speed
13 16 16 14 16 21 22 19 15 11 16 12 15 14 5 10 9 8 10 15 9 8 1 10 14 19 23 25 28 28 27 29 31 32 32 33 35 37 37 40 38 39 38 41
10 15 15 16 12 14 11 15 15 11 6 8 5 7 12 15 15 15 15 16 14 14 14 11 2 17 23 25 27 29 30 31 27 29 31 34 35 36 38 39 40 39 41 42
4 13 7 9 12 10 10 10 8 9 4 7 4 6 13 13 13 12 12 14 14 15 15 16 20 19 17 17 25 29 30 29 29 29 31 33 33 33 37 39 38 42 43 40
4 10 4 9 12 12 4 8 8 7 4 6 4 13 13 13 11 10 9 11 12 11 13 22 27 29 27 25 19 24 27 27 29 29 29 28 30 34 35 34 36 37 38 39
3 4 6 4 2 9 12 5 5 3 10 4 6 13 12 14 9 7 8 8 9 16 19 20 23 25 24 21 23 20 11 17 25 28 29 30 31 35 34 30 31 33 32 33
4 4 1 3 6 14 9 3 6 6 14 15 12 7 9 13 10 6 8 15 13 17 18 21 24 24 22 24 25 27 28 26 30 19 28 28 31 32 31 31 32 29 28 27
7 4 5 6 14 17 2 3 5 10 13 12 10 9 11 12 13 14 14 20 20 21 20 23 25 23 21 21 23 23 22 23 27 27 24 15 21 26 29 28 27 19 17 11
9 7 6 4 7 2 7 6 7 13 13 11 11 11 12 13 16 17 17 23 25 19 20 23 24 22 20 21 19 18 19 24 26 27 27 24 13 9 8 15 18 17 16 11
8 6 11 14 15 12 11 12 12 12 12 11 11 11 13 13 15 15 18 20 22 21 20 23 24 22 20 23 19 16 22 25 26 27 28 27 28 18 11 7 9 14 16 17
3 11 15 16 16 15 14 13 11 11 11 11 11 13 12 14 13 13 19 20 21 20 20 21 24 24 23 23 20 14 16 21 23 30 33 38 33 29 21 14 13 15 13 15
8 10 15 14 15 13 13 13 11 11 12 14 13 13 12 12 13 13 16 19 19 19 19 21 23 24 25 25 19 15 15 16 20 24 28 31 39 40 30 24 13 23 22 22
4 10 10 13 14 12 12 12 11 12 12 13 13 12 12 11 14 14 15 16 17 18 19 21 22 24 26 25 20 13 13 17 18 19 21 24 30 37 43 38 34 38 38 38
7 8 13 12 15 13 11 10 11 11 11 10 13 13 13 10 13 14 16 17 18 18 19 19 21 24 26 24 22 20 16 16 20 21 21 21 22 28 28 32 38 41 38 39
14 9 12 15 8 11 10 9 13 14 15 15 13 14 13 13 14 16 17 17 17 18 20 22 23 24 28 25 23 22 22 25 24 23 23 23 22 20 20 19 23 28 32 35
13 9 8 6 9 10 10 9 10 10 10 12 15 14 14 14 15 16 16 16 18 22 24 26 27 29 26 23 26 26 23 24 25 26 27 26 24 22 22 21 20 19 21 27
10 12 11 10 10 10 11 12 10 10 10 11 13 14 15 16 18 19 21 22 22 22 24 25 29 28 28 26 24 23 25 27 24 23 22 23 21 20 20 20 23 23 20 20
11 10 10 9 10 10 11 11 10 10 12 13 15 14 14 15 18 19 20 22 24 25 26 27 26 30 28 26 24 22 22 24 24 23 23 22 21 20 20 20 19 21 23 24
11 10 11 9 8 9 11 12 14 15 14 15 16 18 19 18 16 18 18 19 20 25 27 27 26 28 30 26 25 23 22 21 22 22 22 21 20 19 19 19 18 18 18 20
14 12 14 14 14 13 13 14 15 15 15 16 17 16 16 17 18 17 18 21 22 21 25 22 23 23 26 24 21 20 20 20 19 18 19 20 21 19 17 17 17 17 16 17
14 15 16 17 17 15 15 15 16 17 17 17 16 16 16 17 14 16 19 22 20 17 19 20 19 22 20 21 21 20 20 19 17 18 19 18 17 16 17 17 17 17 15 15
12 14 14 15 15 16 16 15 15 16 15 15 15 14 14 15 19 15 13 14 17 15 16 18 21 18 19 18 19 20 18 17 17 17 16 16 15 15 16 15 15 14 13 12
11 12 13 14 14 16 16 16 16 16 16 16 15 9 9 10 15 19 19 14 12 14 15 17 18 19 17 16 17 17 16 17 18 17 17 16 15 15 14 13 12 11 11 11
12 12 13 12 13 14 14 15 15 14 14 14 14 11 13 13 12 11 10 12 11 13 12 14 14 15 14 15 15 15 15 15 14 13 13 12 11 10 9 9 10 8 8 7
11 11 11 10 9 10 12 10 11 11 12 12 13 14 13 8 12 10 9 8 8 12 14 14 15 14 14 14 15 14 13 13 13 11 10 9 8 8 8 7 8 8 6 6
9 8 7 7 8 8 8 6 8 7 7 9 9 9 10 10 9 6 7 7 9 8 8 11 10 11 12 12 12 12 11 9 9 8 8 8 7 8 7 7 7 7 6 7
7 7 6 8 8 6 4 3 4 6 3 6 7 6 7 7 6 5 5 6 7 7 8 8 10 10 9 9 9 9 9 8 7 8 8 7 7 8 7 8 7 7 8 8
5 2 3 5 6 6 8 8 7 7 7 6 6 5 5 5 4 4 5 6 6 7 7 7 7 7 11 8 8 8 8 8 9 10 6 8 8 8 8 8 8 8 8 8

GFSNGP_925_spd_075.txt.gz
Wind_Speed
11 14 11 12 14 15 22 17 5 6 7 6 7 18 10 12 15 17 16 17 17 14 13 14 3 15 26 31 33 36 32 32 34 34 35 35 37 35 34 35 38 39 38 40
8 9 7 15 17 15 17 20 17 18 18 2 5 5 6 12 15 16 15 15 16 17 17 15 20 19 18 7 24 34 32 32 30 32 35 36 35 35 37 38 37 36 38 39
3 7 12 8 7 12 10 9 14 10 7 5 7 7 8 9 12 13 13 12 15 15 15 19 22 19 19 21 22 12 26 29 31 34 35 35 36 37 38 37 36 40 39 36
4 6 4 4 3 3 8 5 5 5 2 9 14 12 13 10 9 9 11 13 14 13 19 24 25 29 23 26 26 25 24 13 9 14 28 31 34 36 36 35 37 38 38 39
2 5 9 4 6 3 6 8 12 13 6 10 9 11 15 19 17 15 13 15 16 23 25 28 31 28 23 24 24 24 23 21 23 19 18 21 28 33 37 34 34 36 33 34
2 4 3 4 7 5 3 4 8 13 7 7 12 10 6 15 19 20 21 23 21 24 25 28 31 27 24 25 23 23 22 20 18 20 23 13 9 13 23 30 32 30 29 32
4 2 7 4 7 1 4 4 8 12 10 11 15 8 9 15 18 19 22 26 23 26 25 25 27 24 23 25 27 24 20 15 17 21 18 20 15 13 17 9 21 23 20 12
3 4 6 12 8 3 8 9 13 12 12 12 10 11 14 16 17 18 17 24 24 21 22 24 26 25 23 24 26 24 21 20 21 21 19 20 20 23 21 20 14 14 10 12
6 3 10 14 14 13 13 14 13 14 11 12 11 13 14 14 15 15 20 21 21 19 19 23 24 25 22 24 23 22 22 22 22 22 23 25 25 24 26 25 22 21 20 20
5 10 15 16 16 17 14 15 14 14 13 12 11 12 13 13 13 12 18 18 18 18 19 20 21 20 21 22 19 19 20 21 23 24 29 30 28 27 24 22 21 20 19 19
4 2 16 17 16 14 14 14 15 15 15 14 13 13 13 12 12 14 15 16 18 18 18 19 19 21 23 22 17 16 17 18 19 20 23 30 38 31 28 28 19 26 25 25
2 10 12 9 13 15 12 13 14 13 14 15 12 12 12 11 15 15 15 16 18 19 19 20 20 21 23 22 19 17 17 18 19 17 18 21 26 34 42 40 39 36 34 35
5 15 15 12 14 12 12 14 15 14 12 12 15 15 17 13 17 17 17 18 19 19 20 22 21 25 26 23 23 24 20 19 18 18 17 18 19 21 24 32 39 39 34 32
12 7 13 12 7 8 10 13 18 18 18 17 16 18 18 17 17 19 19 19 19 20 22 22 23 26 25 25 25 24 25 26 22 20 20 21 20 20 20 21 22 26 33 33
13 12 10 10 10 11 13 13 13 12 11 13 17 16 16 17 18 19 20 19 20 24 25 25 26 26 24 24 27 28 23 24 24 25 25 24 23 23 22 20 21 21 22 27
10 13 11 11 12 12 11 12 13 11 10 13 14 17 19 20 20 20 21 21 22 20 22 24 27 26 23 23 23 25 26 27 25 23 23 23 23 21 21 21 21 21 20 19
9 11 9 9 11 13 13 11 10 11 14 15 15 16 18 18 18 18 18 21 24 23 23 26 25 25 23 23 23 22 23 24 23 22 21 20 20 19 19 20 20 20 21 21
12 11 12 11 11 11 12 15 15 16 14 15 18 20 18 16 13 14 15 18 22 25 24 23 22 22 22 21 20 21 20 20 21 21 22 21 20 19 19 19 18 18 20 20
15 13 15 17 16 15 14 16 16 16 15 16 17 16 17 18 17 17 17 18 18 18 21 18 20 21 20 19 19 18 19 20 19 19 19 21 23 21 20 20 21 19 19 19
14 15 17 18 18 16 15 17 18 18 16 18 19 19 17 14 15 17 19 20 19 16 16 16 18 20 18 18 19 21 20 19 18 20 20 21 21 21 21 20 20 19 18 18
11 15 15 16 16 19 19 19 19 18 16 17 19 17 17 16 16 14 13 14 15 12 13 17 20 19 18 18 18 19 19 20 20 20 19 20 20 20 19 18 18 17 18 15
12 12 15 16 15 16 17 17 18 18 18 16 11 11 12 14 16 18 16 12 12 11 13 16 18 17 16 17 18 19 18 18 18 18 18 17 16 15 17 16 14 12 12 12
14 14 14 15 15 15 14 14 12 12 15 14 11 10 13 13 11 11 8 9 11 10 14 15 15 14 15 16 15 15 17 18 16 15 14 13 12 10 10 11 11 9 9 10
12 11 12 13 13 12 10 11 12 13 13 12 13 11 11 14 13 11 9 7 6 13 11 12 12 13 13 12 15 12 14 11 12 13 11 9 10 8 7 6 7 8 6 5
9 8 5 8 9 9 9 9 9 10 11 11 11 11 11 11 9 7 7 8 10 7 11 10 9 10 11 11 11 12 9 9 8 6 10 8 7 7 6 7 6 6 5 7
9 8 9 11 12 13 14 9 9 10 10 12 9 7 7 7 8 6 7 6 7 7 7 8 10 11 8 9 9 9 9 9 10 11 6 8 7 7 8 8 8 7 8 8
7 8 6 10 10 11 11 12 12 11 10 9 11 9 7 7 6 5 5 5 5 6 6 7 7 8 9 6 8 7 7 8 9 8 7 7 8 8 9 9 11 9 6 8

GFSNGP_925_spd_078.txt.gz
Wind_Speed
7 12 14 15 16 14 10 12 7 7 5 4 4 10 10 9 14 20 19 19 16 14 13 13 18 15 5 12 18 21 24 27 32 35 36 36 35 34 34 32 36 36 35 37
5 7 7 14 16 17 17 19 14 20 7 3 5 1 9 4 13 19 17 18 17 16 16 15 17 18 19 17 6 22 22 22 18 20 23 29 33 36 36 35 33 33 37 37
4 7 12 11 10 14 13 15 18 17 13 1 9 8 9 9 13 17 16 16 16 16 14 18 20 20 22 21 22 13 4 1 4 18 26 29 32 32 33 35 35 37 37 38
4 6 4 2 11 4 6 9 13 5 10 15 14 13 15 14 15 16 15 16 15 12 18 20 19 24 22 24 25 24 22 19 16 12 7 5 24 29 31 32 35 36 37 38
2 2 10 4 5 4 3 6 6 14 19 16 9 18 16 16 16 15 15 13 15 20 18 21 23 23 24 26 24 24 23 20 18 16 16 12 8 5 12 27 30 33 33 32
2 3 4 1 10 5 2 3 9 12 11 1 7 9 8 14 14 16 17 19 18 18 20 22 22 23 26 25 24 24 21 19 18 17 16 15 14 12 11 13 13 21 11 10
6 4 7 8 3 5 0 5 12 14 14 14 11 7 10 13 16 19 19 20 20 24 24 24 24 22 22 21 22 19 17 18 21 20 17 18 16 15 13 9 5 9 12 12
3 5 8 4 6 1 7 11 13 12 10 14 13 13 14 15 16 16 15 22 22 19 21 23 24 20 19 21 17 17 21 24 26 26 23 25 23 21 19 14 15 17 18 21
6 3 9 13 14 13 12 12 11 11 9 12 12 14 14 13 13 12 16 16 17 17 18 22 23 23 19 18 15 15 23 23 24 27 28 27 29 28 25 21 16 16 17 17
5 7 13 15 14 15 16 15 14 14 13 12 14 12 13 11 11 10 15 15 16 18 20 21 22 22 19 17 14 15 18 19 21 26 29 30 28 28 25 22 18 16 15 15
5 4 4 14 14 12 16 15 16 16 15 13 12 12 12 11 11 14 16 18 18 18 19 20 19 21 21 19 14 14 17 17 18 20 22 27 35 31 28 33 24 19 19 19
3 6 7 8 13 14 18 12 15 13 14 14 13 12 12 12 15 16 16 16 17 19 19 20 21 22 22 20 18 15 16 16 17 18 19 20 21 28 38 38 38 35 30 28
4 12 11 12 14 16 14 13 14 14 12 12 15 15 16 14 17 17 17 18 18 18 18 18 20 22 21 20 21 20 19 18 18 19 18 18 18 17 17 25 35 36 34 31
9 6 11 14 8 13 14 15 19 18 17 17 15 15 15 16 16 16 17 15 16 18 19 20 21 23 22 20 21 21 21 21 20 19 19 19 19 19 20 19 19 22 29 30
14 13 11 10 13 11 14 13 12 10 12 13 16 15 15 15 15 16 17 15 17 21 22 23 24 25 21 21 22 21 19 20 21 22 23 23 23 24 23 21 20 19 22 24
9 10 11 12 11 11 11 10 10 10 11 13 14 16 16 17 17 17 18 18 19 19 21 25 26 23 19 19 20 22 22 20 20 20 20 21 21 21 20 19 19 19 20 19
6 7 6 8 9 11 11 9 9 8 12 13 14 14 15 15 16 16 18 20 24 26 25 26 23 21 19 18 19 19 19 19 19 20 19 19 18 19 18 18 18 19 20 17
9 11 11 10 8 8 8 11 11 12 12 12 15 18 18 16 13 14 17 18 21 24 24 22 19 18 18 16 17 17 18 18 18 19 18 18 18 18 18 17 16 17 17 16
14 11 13 13 12 12 12 12 12 14 15 16 18 16 17 16 16 16 16 18 19 17 18 16 16 16 15 14 14 16 17 17 17 17 18 17 18 18 18 18 16 16 16 16
13 13 13 14 14 13 12 14 16 16 15 17 17 16 15 15 14 15 16 18 15 10 11 12 14 15 15 14 12 14 15 16 17 17 17 17 18 18 17 16 15 15 14 13
11 14 15 15 16 17 16 16 17 16 13 14 16 16 16 13 10 9 11 11 12 10 12 14 14 14 13 13 15 15 16 16 16 16 16 16 16 16 16 14 13 12 11 10
14 14 15 16 16 16 15 15 15 14 12 13 13 13 14 13 13 14 11 9 8 9 12 14 14 12 12 12 13 15 16 15 15 14 13 13 12 11 11 11 11 9 7 5
13 14 14 14 14 13 11 11 11 12 12 12 12 11 12 10 6 6 6 9 9 9 11 12 11 10 11 12 12 12 12 13 13 12 10 9 9 8 8 7 6 4 3 3
11 10 10 11 11 10 9 9 10 10 11 11 10 8 7 8 9 7 7 6 9 7 8 7 8 9 9 9 9 11 9 8 7 7 7 6 5 5 5 6 6 5 3 4
8 7 9 10 6 7 7 9 9 8 8 9 8 8 8 5 6 7 5 5 5 6 7 7 6 5 4 7 7 6 7 7 7 4 3 4 4 4 5 6 7 6 6 7
9 10 10 9 8 7 3 10 5 10 11 11 9 6 6 6 6 5 4 3 2 2 3 5 6 7 4 5 5 5 5 5 6 5 3 3 5 6 6 6 7 9 8 7
7 11 12 11 9 8 8 8 8 7 8 10 10 7 6 6 5 3 1 2 1 1 2 2 2 2 2 2 3 4 5 6 6 5 7 6 7 8 7 8 10 13 12 9

GFSNGP_925_spd_081.txt.gz
Wind_Speed
6 10 11 14 15 14 15 14 7 12 12 7 5 4 11 17 12 14 15 18 15 14 12 12 16 11 9 14 18 21 21 19 22 26 27 28 28 28 28 31 32 32 32 34
4 7 7 12 18 15 14 18 16 16 18 6 2 8 5 12 12 15 14 15 16 17 15 14 18 17 17 16 5 18 21 21 22 23 24 28 29 31 31 31 33 33 33 34
4 6 11 8 4 6 9 17 15 16 16 8 2 7 6 4 14 13 13 15 16 15 15 19 19 17 18 19 22 23 19 13 7 10 20 22 26 27 27 28 31 33 34 34
3 5 3 4 6 8 12 7 10 17 15 13 14 13 14 12 13 11 10 12 15 13 18 20 19 20 19 21 22 22 21 17 14 14 9 3 3 19 24 28 31 31 30 30
2 3 8 8 3 6 7 5 11 6 19 19 19 19 12 10 13 11 10 12 16 18 18 20 22 20 20 23 21 21 19 17 15 14 14 14 12 9 5 6 10 21 23 25
1 2 4 3 0 2 8 6 16 22 18 17 12 7 2 9 11 13 16 19 18 18 19 20 19 18 21 21 22 23 19 17 16 15 15 14 13 15 12 7 6 4 6 5
7 4 6 5 8 4 4 5 11 15 15 14 10 9 9 10 11 16 18 18 16 19 22 21 20 20 21 20 21 18 17 18 20 18 16 17 16 18 17 17 14 14 14 16
3 3 8 11 6 3 4 9 11 13 15 20 14 14 13 11 12 13 14 18 17 18 18 18 17 15 16 19 15 20 22 24 25 25 24 21 20 21 23 21 22 21 19 21
4 1 8 11 13 12 8 12 11 11 11 14 14 14 12 11 11 12 16 16 16 15 16 18 19 18 18 18 14 14 18 20 20 22 22 25 26 24 23 23 21 19 18 17
4 6 10 12 14 14 15 14 14 13 12 13 15 13 12 10 10 10 16 16 16 17 19 21 22 23 20 16 12 12 15 16 18 23 24 24 26 27 25 21 20 19 18 18
5 4 5 10 12 11 15 15 15 15 14 13 13 13 12 11 11 13 15 17 18 19 19 21 21 22 22 19 13 14 15 15 16 19 22 29 34 28 29 34 24 21 22 21
3 4 7 5 9 11 16 14 13 12 14 15 13 13 12 11 15 15 15 15 17 18 20 20 20 21 23 20 18 15 16 16 16 16 16 18 21 28 35 34 33 32 29 28
3 8 10 11 13 14 15 13 13 13 13 13 16 17 16 14 15 15 15 17 17 18 17 18 19 22 24 22 18 18 17 15 17 17 16 16 17 16 15 22 30 30 30 29
6 1 10 12 7 12 14 15 18 19 18 18 16 16 16 16 16 17 18 17 17 16 19 20 22 24 21 18 19 20 20 18 19 19 20 21 21 21 20 18 17 19 25 25
12 13 11 10 12 10 12 11 12 12 11 14 16 15 15 15 15 16 16 15 16 22 23 23 24 22 18 18 18 18 19 19 20 20 20 21 21 22 22 21 20 19 19 22
8 10 10 12 11 10 10 10 11 10 9 13 14 15 15 16 17 17 19 19 18 17 20 22 22 19 16 15 17 18 18 17 18 19 19 20 19 20 20 20 20 21 22 19
3 6 6 9 9 10 10 8 9 9 11 12 12 11 13 14 15 16 18 17 19 21 21 21 18 15 14 14 14 15 15 15 15 17 18 18 18 19 19 20 19 20 20 18
8 9 10 8 7 7 8 11 11 11 11 10 13 15 16 15 12 13 13 12 15 19 20 18 16 14 14 12 11 12 13 14 15 16 16 17 17 17 17 18 17 17 17 17
12 10 12 12 11 12 11 11 11 13 14 15 17 17 16 15 13 12 11 14 16 17 17 14 13 13 13 11 10 11 12 14 15 16 16 16 17 17 17 17 16 16 15 16
10 10 10 11 12 12 12 13 14 15 14 15 16 16 15 13 11 12 13 16 13 10 11 12 12 14 13 12 10 11 12 14 15 15 15 16 16 15 14 13 13 13 12 12
9 12 13 15 15 14 13 13 14 13 11 10 13 13 12 8 7 8 12 12 12 10 11 12 13 13 12 11 12 13 14 14 15 14 14 14 13 13 13 12 11 9 9 7
12 13 14 14 15 14 12 11 12 12 12 12 11 9 8 9 8 10 9 8 8 9 10 12 13 12 11 11 12 12 13 13 13 11 11 10 10 10 9 9 8 6 5 5
12 12 12 12 12 11 9 8 8 8 7 6 5 5 5 4 2 2 5 6 6 7 9 10 10 10 11 10 11 11 10 10 9 9 8 8 8 7 7 7 7 5 4 4
10 8 9 9 8 7 7 8 8 8 7 6 5 3 2 3 5 5 3 4 6 6 7 8 8 8 7 7 8 9 9 7 5 5 4 4 4 5 5 7 8 5 4 5
8 8 8 8 4 3 4 7 7 6 4 5 4 3 3 2 2 2 3 2 2 5 6 7 7 5 5 7 6 6 7 7 7 4 4 4 4 6 6 6 6 7 8 8
8 9 7 5 4 3 2 9 9 10 9 7 5 2 1 1 1 1 1 2 2 2 2 3 4 4 3 4 5 5 5 5 5 4 5 6 6 7 6 6 7 9 10 10
9 9 9 7 5 4 3 3 2 3 8 9 6 4 3 3 3 3 3 4 4 4 5 4 4 4 5 6 7 7 6 6 6 6 6 7 9 10 9 8 8 10 12 12

GFSNGP_925_spd_084.txt.gz
Wind_Speed
3 5 2 6 9 11 10 13 9 16 14 16 11 10 4 13 13 13 14 16 14 12 12 12 14 10 9 9 13 16 17 18 20 20 21 19 18 18 17 17 18 18 21 24
3 4 2 4 15 14 12 14 15 19 22 17 10 3 6 13 13 13 14 15 16 16 16 13 16 16 16 11 4 13 14 15 13 16 17 18 19 20 21 22 22 22 23 23
3 4 6 5 5 4 6 8 14 13 17 4 4 3 7 12 13 12 13 15 16 15 13 17 17 18 20 16 20 21 20 15 13 6 8 12 16 19 21 23 26 28 28 28
2 4 2 5 0 4 7 13 9 16 10 10 10 12 17 15 13 11 12 13 14 13 16 18 19 23 21 19 23 23 21 16 15 12 10 8 6 4 5 11 17 23 25 28
1 1 6 9 2 2 2 18 11 11 19 11 17 16 13 13 14 13 12 11 15 19 20 21 23 22 20 23 24 23 20 18 17 15 13 13 12 10 8 6 5 6 4 2
2 1 3 4 3 6 7 5 17 22 10 22 16 5 3 11 13 12 13 15 18 20 23 23 19 21 25 22 24 23 19 16 16 17 17 17 16 15 13 11 11 13 18 19
6 5 5 4 11 9 5 7 11 14 17 16 9 9 9 11 10 13 14 15 18 22 20 19 20 21 23 22 23 18 19 20 23 20 20 18 20 20 18 19 19 20 21 21
3 3 6 15 8 3 4 9 7 11 12 17 15 15 12 12 13 13 14 18 18 19 21 22 22 18 20 20 16 18 22 24 23 25 23 23 23 22 22 20 22 21 22 24
4 1 7 11 11 12 11 8 10 10 10 11 13 13 12 12 13 14 18 18 19 19 19 22 22 19 19 17 17 18 21 22 21 21 24 27 26 23 23 22 19 18 18 18
4 5 9 11 11 13 13 14 13 13 12 11 14 13 13 13 13 12 18 18 19 20 21 22 24 25 24 19 18 20 20 21 22 26 26 26 29 28 24 21 18 17 17 17
3 6 8 12 10 9 13 13 15 16 15 14 14 14 12 12 12 15 16 18 19 19 19 20 21 24 24 18 14 16 18 17 18 19 23 29 33 29 30 30 23 21 21 19
3 6 7 7 9 10 13 14 14 14 16 17 15 13 13 12 16 16 16 16 17 19 21 21 23 24 23 19 18 16 15 15 16 16 17 18 22 28 31 30 31 28 24 24
4 8 11 11 11 11 14 14 15 15 14 14 17 17 17 14 17 17 16 17 19 18 18 19 19 23 22 22 17 16 15 12 14 16 17 17 18 16 15 22 27 27 26 24
9 5 8 14 7 11 14 17 20 20 18 17 16 16 15 15 16 17 17 16 16 18 20 21 24 24 19 16 18 20 20 19 19 19 19 19 20 20 20 19 17 21 21 23
11 12 11 10 13 12 14 13 13 13 13 15 16 15 14 15 15 15 14 14 16 22 24 23 24 22 18 17 19 19 19 19 19 19 19 19 19 20 20 20 20 19 17 18
8 10 10 11 11 11 10 11 12 12 11 13 14 14 14 15 15 16 18 19 19 18 21 23 23 20 17 15 15 16 17 16 16 17 17 17 17 18 18 19 20 20 21 18
2 6 7 8 9 10 11 10 12 11 12 12 11 10 11 13 15 16 18 18 20 22 21 21 19 17 15 14 13 13 13 13 13 14 16 16 16 17 17 18 19 20 19 17
9 9 11 8 7 9 10 13 13 12 12 11 15 17 18 17 12 13 13 13 16 20 21 18 16 13 13 13 10 10 10 12 13 15 14 15 15 14 15 16 17 17 17 17
11 11 12 13 12 13 12 12 12 13 14 15 18 18 16 16 15 14 12 16 19 20 19 16 14 14 13 12 10 10 11 11 13 13 13 13 14 14 15 15 15 14 14 14
11 12 13 15 16 15 15 15 16 16 13 14 14 14 14 12 11 12 14 18 15 11 11 12 12 13 13 12 10 11 11 11 13 12 12 13 13 12 12 11 11 10 10 10
10 14 15 17 16 15 15 12 13 12 9 9 11 10 9 8 8 8 11 13 12 10 10 11 12 12 11 10 11 11 11 12 12 12 11 10 10 10 9 8 8 7 6 5
10 12 12 13 15 13 11 10 11 11 10 10 9 8 7 8 8 9 9 8 7 8 9 11 12 11 10 10 10 10 10 10 10 9 9 8 8 7 7 6 5 4 3 3
12 11 11 10 10 9 7 6 5 4 4 4 5 5 5 5 4 2 3 5 6 6 8 9 9 9 9 9 9 9 8 7 7 6 6 5 5 4 4 4 5 3 2 2
12 10 10 9 8 6 6 6 5 5 4 4 3 3 3 3 3 3 2 4 5 6 7 7 7 7 7 7 8 8 8 7 4 3 2 2 2 3 4 5 5 4 4 5
9 9 8 7 4 3 5 6 6 5 4 3 2 1 2 2 3 1 2 2 3 4 5 6 7 5 5 6 6 6 6 6 6 5 4 4 4 5 5 5 5 6 8 9
7 7 6 3 2 2 1 7 10 9 9 7 4 2 1 1 1 2 3 3 4 5 5 6 6 6 5 6 7 8 7 7 6 6 6 6 7 8 9 9 8 7 9 11
9 8 8 6 4 4 4 3 2 1 4 9 6 3 4 4 5 5 6 7 7 7 7 8 8 9 9 9 9 11 12 11 10 10 10 9 9 11 10 8 8 9 11 12